| time (UTC) | temp C | wind direction | speed KPH | gust KPH | rain 1hr cm | rain 24hr cm | rain mn cm | humidity % | barometer mb |
| 20260504221332 | 12 | 346 | 12.9 | 41.8 | 0.00 | 0.00 | 0.00 | 46 | 1002.7 |
| 20260504221218 | 12 | 332 | 12.9 | 41.8 | 0.00 | 0.00 | 0.00 | 45 | 1002.7 |
| 20260504221122 | 12 | 17 | 14.5 | 41.8 | 0.00 | 0.00 | 0.00 | 44 | 1002.7 |
| 20260504221007 | 12 | 322 | 22.5 | 41.8 | 0.00 | 0.00 | 0.00 | 45 | 1002.7 |
| 20260504220911 | 12 | 323 | 24.1 | 41.8 | 0.00 | 0.00 | 0.00 | 45 | 1002.7 |
| 20260504220815 | 12 | 348 | 29.0 | 41.8 | 0.00 | 0.00 | 0.00 | 44 | 1002.7 |
| 20260504220720 | 12 | 333 | 27.4 | 41.8 | 0.00 | 0.00 | 0.00 | 43 | 1002.6 |
| 20260504220628 | 12 | 335 | 20.9 | 37.0 | 0.00 | 0.00 | 0.00 | 45 | 1002.6 |
| 20260504220505 | 12 | 21 | 22.5 | 37.0 | 0.00 | 0.00 | 0.00 | 44 | 1002.6 |
| 20260504220409 | 12 | 310 | 25.7 | 37.0 | 0.00 | 0.00 | 0.00 | 44 | 1002.5 |
| 20260504220314 | 12 | 355 | 20.9 | 37.0 | 0.00 | 0.00 | 0.00 | 45 | 1002.5 |
| 20260504220237 | 12 | 345 | 19.3 | 37.0 | 0.00 | 0.00 | 0.00 | 46 | 1002.6 |
| 20260504220141 | 12 | 360 | 20.9 | 35.4 | 0.00 | 0.00 | 0.00 | 45 | 1002.5 |
| 20260504220043 | 12 | 344 | 20.9 | 35.4 | 0.00 | 0.00 | 0.00 | 46 | 1002.5 |
| 20260504215911 | 12 | 328 | 22.5 | 35.4 | 0.00 | 0.00 | 0.00 | 45 | 1002.6 |
| 20260504215835 | 12 | 342 | 20.9 | 37.0 | 0.00 | 0.00 | 0.00 | 45 | 1002.5 |
| 20260504215718 | 12 | 338 | 17.7 | 37.0 | 0.00 | 0.00 | 0.00 | 46 | 1002.5 |
| 20260504215621 | 12 | 39 | 19.3 | 37.0 | 0.00 | 0.00 | 0.00 | 46 | 1002.5 |
| 20260504215506 | 12 | 355 | 20.9 | 37.0 | 0.00 | 0.00 | 0.00 | 46 | 1002.5 |
| 20260504215409 | 12 | 316 | 19.3 | 37.0 | 0.00 | 0.00 | 0.00 | 46 | 1002.4 |
| 20260504215335 | 12 | 335 | 19.3 | 37.0 | 0.00 | 0.00 | 0.00 | 46 | 1002.4 |
| 20260504215238 | 12 | 323 | 19.3 | 37.0 | 0.00 | 0.00 | 0.00 | 46 | 1002.4 |
| 20260504215145 | 13 | 360 | 20.9 | 40.2 | 0.00 | 0.00 | 0.00 | 45 | 1002.4 |
| 20260504215028 | 13 | 5 | 24.1 | 40.2 | 0.00 | 0.00 | 0.00 | 46 | 1002.4 |
| 20260504214905 | 13 | 22 | 20.9 | 40.2 | 0.00 | 0.00 | 0.00 | 46 | 1002.3 |
| 20260504214810 | 13 | 348 | 20.9 | 40.2 | 0.00 | 0.00 | 0.00 | 45 | 1002.3 |
| 20260504214736 | 13 | 5 | 22.5 | 40.2 | 0.00 | 0.00 | 0.00 | 45 | 1002.3 |
| 20260504214639 | 13 | 17 | 24.1 | 40.2 | 0.00 | 0.00 | 0.00 | 45 | 1002.3 |
| 20260504214522 | 13 | 16 | 24.1 | 40.2 | 0.00 | 0.00 | 0.00 | 45 | 1002.3 |
| 20260504214410 | 13 | 19 | 27.4 | 40.2 | 0.00 | 0.00 | 0.00 | 46 | 1002.1 |
| 20260504214315 | 13 | 360 | 24.1 | 40.2 | 0.00 | 0.00 | 0.00 | 46 | 1002.3 |
| 20260504214219 | 13 | 13 | 17.7 | 40.2 | 0.00 | 0.00 | 0.00 | 47 | 1002.2 |
| 20260504214123 | 13 | 38 | 20.9 | 40.2 | 0.00 | 0.00 | 0.00 | 46 | 1002.2 |
| 20260504214027 | 13 | 327 | 27.4 | 41.8 | 0.00 | 0.00 | 0.00 | 46 | 1002.2 |
| 20260504213910 | 13 | 35 | 25.7 | 41.8 | 0.00 | 0.00 | 0.00 | 45 | 1002.1 |
| 20260504213819 | 13 | 5 | 19.3 | 41.8 | 0.00 | 0.00 | 0.00 | 46 | 1002.1 |
| 20260504213723 | 13 | 24 | 17.7 | 41.8 | 0.00 | 0.00 | 0.00 | 46 | 1002.1 |
| 20260504213608 | 13 | 12 | 19.3 | 41.8 | 0.00 | 0.00 | 0.00 | 46 | 1002.1 |
| 20260504213513 | 13 | 13 | 20.9 | 41.8 | 0.00 | 0.00 | 0.00 | 44 | 1002.2 |
| 20260504213417 | 13 | 355 | 27.4 | 41.8 | 0.00 | 0.00 | 0.00 | 44 | 1002.2 |
| 20260504213322 | 13 | 9 | 27.4 | 41.8 | 0.00 | 0.00 | 0.00 | 44 | 1002.1 |
| 20260504213209 | 13 | 344 | 25.7 | 41.8 | 0.00 | 0.00 | 0.00 | 44 | 1002.1 |
| 20260504213113 | 13 | 338 | 27.4 | 40.2 | 0.00 | 0.00 | 0.00 | 45 | 1002.1 |
| 20260504213037 | 13 | 5 | 29.0 | 40.2 | 0.00 | 0.00 | 0.00 | 45 | 1002.0 |
| 20260504212920 | 13 | 351 | 24.1 | 35.4 | 0.00 | 0.00 | 0.00 | 47 | 1002.0 |
| 20260504212844 | 13 | 355 | 20.9 | 37.0 | 0.00 | 0.00 | 0.00 | 46 | 1002.0 |
| 20260504212728 | 13 | 38 | 20.9 | 37.0 | 0.00 | 0.00 | 0.00 | 47 | 1002.0 |
| 20260504212606 | 12 | 347 | 24.1 | 37.0 | 0.00 | 0.00 | 0.00 | 46 | 1002.0 |
| 20260504212514 | 12 | 19 | 24.1 | 37.0 | 0.00 | 0.00 | 0.00 | 47 | 1002.1 |
| 20260504212439 | 12 | 34 | 20.9 | 40.2 | 0.00 | 0.00 | 0.00 | 46 | 1002.0 |
| 20260504212323 | 12 | 9 | 20.9 | 40.2 | 0.00 | 0.00 | 0.00 | 46 | 1002.0 |
| 20260504212226 | 13 | 346 | 24.1 | 40.2 | 0.00 | 0.00 | 0.00 | 46 | 1002.0 |
| 20260504212110 | 13 | 355 | 24.1 | 40.2 | 0.00 | 0.00 | 0.00 | 46 | 1002.0 |
| 20260504212015 | 13 | 355 | 22.5 | 40.2 | 0.00 | 0.00 | 0.00 | 47 | 1002.0 |
| 20260504211918 | 13 | 360 | 19.3 | 40.2 | 0.00 | 0.00 | 0.00 | 48 | 1002.0 |
| 20260504211827 | 13 | 26 | 22.5 | 40.2 | 0.00 | 0.00 | 0.00 | 46 | 1001.9 |
| 20260504211751 | 13 | 15 | 24.1 | 40.2 | 0.00 | 0.00 | 0.00 | 46 | 1002.0 |
| 20260504211607 | 13 | 346 | 22.5 | 40.2 | 0.00 | 0.00 | 0.00 | 47 | 1002.1 |
| 20260504211511 | 13 | 360 | 19.3 | 35.4 | 0.00 | 0.00 | 0.00 | 46 | 1001.9 |
| 20260504211414 | 13 | 360 | 20.9 | 35.4 | 0.00 | 0.00 | 0.00 | 48 | 1002.0 |
| 20260504211319 | 13 | 329 | 24.1 | 35.4 | 0.00 | 0.00 | 0.00 | 47 | 1002.0 |
| 20260504211206 | 13 | 315 | 19.3 | 35.4 | 0.00 | 0.00 | 0.00 | 49 | 1001.8 |
| 20260504211131 | 13 | 355 | 14.5 | 33.8 | 0.00 | 0.00 | 0.00 | 49 | 1001.9 |
| 20260504211007 | 13 | 350 | 14.5 | 35.4 | 0.00 | 0.00 | 0.00 | 48 | 1002.0 |
| 20260504210910 | 13 | 355 | 12.9 | 35.4 | 0.00 | 0.00 | 0.00 | 49 | 1001.9 |
| 20260504210814 | 13 | 346 | 11.3 | 35.4 | 0.00 | 0.00 | 0.00 | 51 | 1002.0 |
| 20260504210719 | 13 | 340 | 16.1 | 35.4 | 0.00 | 0.00 | 0.00 | 48 | 1002.0 |
| 20260504210626 | 13 | 343 | 19.3 | 35.4 | 0.00 | 0.00 | 0.00 | 47 | 1002.0 |
| 20260504210551 | 13 | 349 | 22.5 | 35.4 | 0.00 | 0.00 | 0.00 | 48 | 1001.9 |
| 20260504210406 | 13 | 309 | 22.5 | 35.4 | 0.00 | 0.00 | 0.00 | 47 | 1001.9 |
| 20260504210329 | 13 | 355 | 20.9 | 35.4 | 0.00 | 0.00 | 0.00 | 48 | 1001.9 |
| 20260504210212 | 13 | 5 | 22.5 | 35.4 | 0.00 | 0.00 | 0.00 | 48 | 1001.9 |
| 20260504210116 | 13 | 5 | 20.9 | 30.6 | 0.00 | 0.00 | 0.00 | 48 | 1001.8 |
| 20260504210020 | 13 | 25 | 19.3 | 30.6 | 0.00 | 0.00 | 0.00 | 48 | 1001.8 |
| 20260504205928 | 13 | 9 | 16.1 | 30.6 | 0.00 | 0.00 | 0.00 | 48 | 1001.8 |
| 20260504205851 | 13 | 355 | 17.7 | 35.4 | 0.00 | 0.00 | 0.00 | 48 | 1001.8 |
| 20260504205707 | 13 | 5 | 16.1 | 35.4 | 0.00 | 0.00 | 0.00 | 46 | 1001.9 |
| 20260504205610 | 13 | 336 | 12.9 | 35.4 | 0.00 | 0.00 | 0.00 | 46 | 1001.8 |
| 20260504205513 | 13 | 35 | 17.7 | 35.4 | 0.00 | 0.00 | 0.00 | 46 | 1001.8 |
| 20260504205416 | 13 | 360 | 20.9 | 37.0 | 0.00 | 0.00 | 0.00 | 46 | 1001.7 |
| 20260504205319 | 13 | 347 | 19.3 | 37.0 | 0.00 | 0.00 | 0.00 | 45 | 1001.8 |
| 20260504205206 | 13 | 304 | 20.9 | 37.0 | 0.00 | 0.00 | 0.00 | 46 | 1001.7 |
| 20260504205129 | 13 | 340 | 24.1 | 37.0 | 0.00 | 0.00 | 0.00 | 45 | 1001.8 |
| 20260504205011 | 13 | 19 | 25.7 | 37.0 | 0.00 | 0.00 | 0.00 | 46 | 1001.7 |
| 20260504204914 | 14 | 343 | 22.5 | 37.0 | 0.00 | 0.00 | 0.00 | 46 | 1001.7 |
| 20260504204818 | 14 | 315 | 22.5 | 37.0 | 0.00 | 0.00 | 0.00 | 46 | 1001.6 |
| 20260504204720 | 14 | 332 | 25.7 | 37.0 | 0.00 | 0.00 | 0.00 | 46 | 1001.7 |
| 20260504204608 | 14 | 360 | 22.5 | 37.0 | 0.00 | 0.00 | 0.00 | 45 | 1001.6 |
| 20260504204531 | 14 | 42 | 19.3 | 30.6 | 0.00 | 0.00 | 0.00 | 46 | 1001.6 |
| 20260504204434 | 15 | 360 | 17.7 | 30.6 | 0.00 | 0.00 | 0.00 | 46 | 1001.5 |
| 20260504204315 | 15 | 65 | 17.7 | 30.6 | 0.00 | 0.00 | 0.00 | 47 | 1001.6 |
| 20260504204218 | 15 | 9 | 19.3 | 30.6 | 0.00 | 0.00 | 0.00 | 46 | 1001.6 |
| 20260504204121 | 15 | 360 | 19.3 | 35.4 | 0.00 | 0.00 | 0.00 | 46 | 1001.6 |
| 20260504204022 | 15 | 9 | 19.3 | 37.0 | 0.00 | 0.00 | 0.00 | 45 | 1001.6 |
| 20260504203931 | 15 | 19 | 19.3 | 37.0 | 0.00 | 0.00 | 0.00 | 46 | 1001.6 |
| 20260504203806 | 15 | 325 | 17.7 | 37.0 | 0.00 | 0.00 | 0.00 | 48 | 1001.7 |
| 20260504203709 | 14 | 287 | 16.1 | 37.0 | 0.00 | 0.00 | 0.00 | 47 | 1001.6 |
| 20260504203611 | 14 | 337 | 19.3 | 37.0 | 0.00 | 0.00 | 0.00 | 47 | 1001.6 |
| 20260504203515 | 14 | 360 | 22.5 | 37.0 | 0.00 | 0.00 | 0.00 | 46 | 1001.6 |
| 20260504203417 | 14 | 5 | 24.1 | 37.0 | 0.00 | 0.00 | 0.00 | 46 | 1001.6 |
| 20260504203306 | 14 | 360 | 25.7 | 37.0 | 0.00 | 0.00 | 0.00 | 47 | 1001.5 |
| 20260504203207 | 14 | 13 | 20.9 | 37.0 | 0.00 | 0.00 | 0.00 | 48 | 1001.5 |
| 20260504203131 | 14 | 360 | 19.3 | 37.0 | 0.00 | 0.00 | 0.00 | 48 | 1001.5 |
| 20260504203014 | 14 | 5 | 19.3 | 37.0 | 0.00 | 0.00 | 0.00 | 47 | 1001.5 |
| 20260504202917 | 14 | 346 | 19.3 | 37.0 | 0.00 | 0.00 | 0.00 | 47 | 1001.5 |
| 20260504202820 | 14 | 5 | 19.3 | 37.0 | 0.00 | 0.00 | 0.00 | 47 | 1001.5 |
| 20260504202708 | 13 | 30 | 20.9 | 37.0 | 0.00 | 0.00 | 0.00 | 48 | 1001.5 |
| 20260504202610 | 13 | 11 | 20.9 | 37.0 | 0.00 | 0.00 | 0.00 | 50 | 1001.5 |
| 20260504202513 | 13 | 355 | 22.5 | 37.0 | 0.00 | 0.00 | 0.00 | 49 | 1001.5 |
| 20260504202417 | 13 | 345 | 22.5 | 37.0 | 0.00 | 0.00 | 0.00 | 48 | 1001.6 |
| 20260504202319 | 13 | 5 | 19.3 | 37.0 | 0.00 | 0.00 | 0.00 | 49 | 1001.5 |
| 20260504202243 | 13 | 31 | 17.7 | 46.7 | 0.00 | 0.00 | 0.00 | 49 | 1001.5 |
| 20260504202123 | 13 | 347 | 20.9 | 46.7 | 0.00 | 0.00 | 0.00 | 49 | 1001.5 |
| 20260504202031 | 13 | 5 | 22.5 | 46.7 | 0.00 | 0.00 | 0.00 | 47 | 1001.4 |
| 20260504201907 | 13 | 38 | 19.3 | 46.7 | 0.00 | 0.00 | 0.00 | 48 | 1001.4 |
| 20260504201810 | 13 | 36 | 19.3 | 46.7 | 0.00 | 0.00 | 0.00 | 48 | 1001.4 |
| 20260504201733 | 13 | 355 | 20.9 | 46.7 | 0.00 | 0.00 | 0.00 | 47 | 1001.4 |
| 20260504201615 | 13 | 351 | 22.5 | 46.7 | 0.00 | 0.00 | 0.00 | 48 | 1001.5 |
| 20260504201519 | 13 | 19 | 25.7 | 46.7 | 0.00 | 0.00 | 0.00 | 48 | 1001.5 |
| 20260504201406 | 13 | 5 | 22.5 | 46.7 | 0.00 | 0.00 | 0.00 | 49 | 1001.4 |
| 20260504201328 | 13 | 5 | 19.3 | 40.2 | 0.00 | 0.00 | 0.00 | 48 | 1001.5 |
| 20260504201205 | 13 | 19 | 19.3 | 40.2 | 0.00 | 0.00 | 0.00 | 48 | 1001.5 |
| 20260504201107 | 13 | 360 | 22.5 | 40.2 | 0.00 | 0.00 | 0.00 | 48 | 1001.5 |
| 20260504201012 | 13 | 22 | 20.9 | 40.2 | 0.00 | 0.00 | 0.00 | 48 | 1001.3 |
| 20260504200915 | 13 | 10 | 20.9 | 40.2 | 0.00 | 0.00 | 0.00 | 47 | 1001.4 |
| 20260504200817 | 13 | 355 | 22.5 | 40.2 | 0.00 | 0.00 | 0.00 | 47 | 1001.4 |
| 20260504200705 | 14 | 40 | 25.7 | 40.2 | 0.00 | 0.00 | 0.00 | 47 | 1001.4 |
| 20260504200629 | 14 | 36 | 29.0 | 40.2 | 0.00 | 0.00 | 0.00 | 47 | 1001.3 |
| 20260504200531 | 14 | 32 | 27.4 | 40.2 | 0.00 | 0.00 | 0.00 | 47 | 1001.3 |
| 20260504200406 | 14 | 9 | 24.1 | 40.2 | 0.00 | 0.00 | 0.00 | 47 | 1001.4 |
| 20260504200330 | 15 | 348 | 25.7 | 40.2 | 0.00 | 0.00 | 0.00 | 48 | 1001.2 |
| 20260504200212 | 15 | 15 | 25.7 | 41.8 | 0.00 | 0.00 | 0.00 | 46 | 1001.3 |
| 20260504200115 | 15 | 355 | 25.7 | 41.8 | 0.00 | 0.00 | 0.00 | 45 | 1001.2 |
| 20260504200022 | 15 | 342 | 19.3 | 41.8 | 0.00 | 0.00 | 0.00 | 45 | 1001.1 |
| 20260504195926 | 15 | 355 | 14.5 | 41.8 | 0.00 | 0.00 | 0.00 | 45 | 1001.0 |
| 20260504195808 | 15 | 355 | 19.3 | 41.8 | 0.00 | 0.00 | 0.00 | 46 | 1000.9 |
| 20260504195712 | 15 | 5 | 24.1 | 41.8 | 0.00 | 0.00 | 0.00 | 45 | 1001.0 |
| 20260504195615 | 15 | 348 | 27.4 | 41.8 | 0.00 | 0.00 | 0.00 | 43 | 1001.2 |
| 20260504195518 | 15 | 360 | 24.1 | 41.8 | 0.00 | 0.00 | 0.00 | 45 | 1001.1 |
| 20260504195406 | 15 | 355 | 17.7 | 32.2 | 0.00 | 0.00 | 0.00 | 46 | 1000.9 |
| 20260504195329 | 15 | 5 | 20.9 | 35.4 | 0.00 | 0.00 | 0.00 | 45 | 1001.0 |
| 20260504195204 | 15 | 305 | 20.9 | 40.2 | 0.00 | 0.00 | 0.00 | 47 | 1001.1 |
| 20260504195109 | 15 | 360 | 19.3 | 40.2 | 0.00 | 0.00 | 0.00 | 47 | 1001.1 |
| 20260504195011 | 15 | 5 | 19.3 | 40.2 | 0.00 | 0.00 | 0.00 | 47 | 1001.0 |
| 20260504194915 | 15 | 349 | 19.3 | 40.2 | 0.00 | 0.00 | 0.00 | 46 | 1001.1 |
| 20260504194822 | 15 | 340 | 19.3 | 40.2 | 0.00 | 0.00 | 0.00 | 46 | 1001.0 |
| 20260504194725 | 15 | 13 | 22.5 | 40.2 | 0.00 | 0.00 | 0.00 | 47 | 1000.9 |
| 20260504194608 | 15 | 341 | 25.7 | 40.2 | 0.00 | 0.00 | 0.00 | 46 | 1000.9 |
| 20260504194511 | 15 | 331 | 29.0 | 40.2 | 0.00 | 0.00 | 0.00 | 47 | 1001.0 |
| 20260504194417 | 15 | 348 | 25.7 | 40.2 | 0.00 | 0.00 | 0.00 | 46 | 1001.0 |
| 20260504194340 | 15 | 5 | 24.1 | 35.4 | 0.00 | 0.00 | 0.00 | 48 | 1000.9 |
| 20260504194223 | 15 | 355 | 25.7 | 35.4 | 0.00 | 0.00 | 0.00 | 46 | 1001.1 |
| 20260504194129 | 15 | 9 | 27.4 | 35.4 | 0.00 | 0.00 | 0.00 | 47 | 1001.0 |
| 20260504194005 | 15 | 5 | 22.5 | 35.4 | 0.00 | 0.00 | 0.00 | 47 | 1001.0 |
| 20260504193907 | 15 | 360 | 20.9 | 32.2 | 0.00 | 0.00 | 0.00 | 47 | 1000.9 |
| 20260504193812 | 15 | 14 | 17.7 | 32.2 | 0.00 | 0.00 | 0.00 | 46 | 1000.9 |
| 20260504193715 | 15 | 11 | 19.3 | 33.8 | 0.00 | 0.00 | 0.00 | 46 | 1001.0 |
| 20260504193619 | 15 | 351 | 19.3 | 33.8 | 0.00 | 0.00 | 0.00 | 45 | 1000.9 |
| 20260504193540 | 15 | 31 | 14.5 | 33.8 | 0.00 | 0.00 | 0.00 | 47 | 1001.0 |
| 20260504193428 | 15 | 321 | 11.3 | 33.8 | 0.00 | 0.00 | 0.00 | 47 | 1000.8 |
| 20260504193304 | 15 | 336 | 16.1 | 40.2 | 0.00 | 0.00 | 0.00 | 48 | 1000.7 |
| 20260504193207 | 15 | 350 | 17.7 | 40.2 | 0.00 | 0.00 | 0.00 | 47 | 1000.8 |
| 20260504193111 | 15 | 15 | 19.3 | 40.2 | 0.00 | 0.00 | 0.00 | 47 | 1000.7 |
| 20260504193037 | 15 | 37 | 20.9 | 40.2 | 0.00 | 0.00 | 0.00 | 46 | 1000.9 |
| 20260504192919 | 15 | 28 | 22.5 | 40.2 | 0.00 | 0.00 | 0.00 | 46 | 1000.8 |
| 20260504192808 | 15 | 340 | 20.9 | 40.2 | 0.00 | 0.00 | 0.00 | 48 | 1000.8 |
| 20260504192711 | 15 | 347 | 22.5 | 40.2 | 0.00 | 0.00 | 0.00 | 46 | 1000.7 |
| 20260504192617 | 15 | 320 | 20.9 | 40.2 | 0.00 | 0.00 | 0.00 | 48 | 1000.9 |
| 20260504192520 | 15 | 325 | 20.9 | 40.2 | 0.00 | 0.00 | 0.00 | 47 | 1000.9 |
| 20260504192423 | 15 | 5 | 20.9 | 35.4 | 0.00 | 0.00 | 0.00 | 45 | 1000.6 |
| 20260504192308 | 15 | 10 | 19.3 | 35.4 | 0.00 | 0.00 | 0.00 | 47 | 1000.7 |
| 20260504192217 | 15 | 5 | 17.7 | 35.4 | 0.00 | 0.00 | 0.00 | 49 | 1000.7 |
| 20260504192121 | 15 | 13 | 17.7 | 35.4 | 0.00 | 0.00 | 0.00 | 48 | 1000.6 |
| 20260504192006 | 15 | 334 | 20.9 | 35.4 | 0.00 | 0.00 | 0.00 | 47 | 1000.7 |
| 20260504191931 | 15 | 350 | 20.9 | 35.4 | 0.00 | 0.00 | 0.00 | 48 | 1000.7 |
| 20260504191813 | 15 | 345 | 22.5 | 35.4 | 0.00 | 0.00 | 0.00 | 48 | 1000.7 |
| 20260504191718 | 15 | 9 | 20.9 | 35.4 | 0.00 | 0.00 | 0.00 | 48 | 1000.6 |
| 20260504191606 | 15 | 5 | 19.3 | 38.6 | 0.00 | 0.00 | 0.00 | 48 | 1000.6 |
| 20260504191510 | 15 | 40 | 20.9 | 38.6 | 0.00 | 0.00 | 0.00 | 46 | 1000.6 |
| 20260504191415 | 15 | 360 | 20.9 | 40.2 | 0.00 | 0.00 | 0.00 | 47 | 1000.5 |
| 20260504191319 | 15 | 344 | 20.9 | 40.2 | 0.00 | 0.00 | 0.00 | 48 | 1000.6 |
| 20260504191223 | 15 | 28 | 17.7 | 40.2 | 0.00 | 0.00 | 0.00 | 48 | 1000.6 |
| 20260504191128 | 15 | 336 | 16.1 | 40.2 | 0.00 | 0.00 | 0.00 | 48 | 1000.5 |
| 20260504191016 | 15 | 311 | 20.9 | 40.2 | 0.00 | 0.00 | 0.00 | 49 | 1000.6 |
| 20260504190920 | 15 | 9 | 20.9 | 40.2 | 0.00 | 0.00 | 0.00 | 48 | 1000.5 |
| 20260504190822 | 15 | 355 | 22.5 | 40.2 | 0.00 | 0.00 | 0.00 | 49 | 1000.5 |
| 20260504190708 | 15 | 348 | 27.4 | 40.2 | 0.00 | 0.00 | 0.00 | 48 | 1000.5 |
| 20260504190611 | 15 | 360 | 25.7 | 40.2 | 0.00 | 0.00 | 0.00 | 47 | 1000.5 |
| 20260504190515 | 15 | 342 | 20.9 | 37.0 | 0.00 | 0.00 | 0.00 | 48 | 1000.4 |
| 20260504190420 | 15 | 355 | 19.3 | 38.6 | 0.00 | 0.00 | 0.00 | 47 | 1000.4 |
| 20260504190328 | 15 | 15 | 22.5 | 38.6 | 0.00 | 0.00 | 0.00 | 48 | 1000.4 |
| 20260504190205 | 15 | 327 | 20.9 | 40.2 | 0.00 | 0.00 | 0.00 | 49 | 1000.4 |
| 20260504190109 | 15 | 13 | 19.3 | 40.2 | 0.00 | 0.00 | 0.00 | 52 | 1000.2 |
| 20260504190034 | 15 | 351 | 19.3 | 40.2 | 0.00 | 0.00 | 0.00 | 49 | 1000.2 |
| 20260504185918 | 15 | 52 | 22.5 | 40.2 | 0.00 | 0.00 | 0.00 | 50 | 1000.2 |
| 20260504185821 | 15 | 351 | 24.1 | 40.2 | 0.00 | 0.00 | 0.00 | 49 | 1000.5 |
| 20260504185711 | 15 | 360 | 25.7 | 40.2 | 0.00 | 0.00 | 0.00 | 48 | 1000.3 |
| 20260504185615 | 15 | 29 | 27.4 | 40.2 | 0.00 | 0.00 | 0.00 | 48 | 1000.3 |
| 20260504185539 | 15 | 11 | 24.1 | 40.2 | 0.00 | 0.00 | 0.00 | 48 | 1000.2 |
| 20260504185423 | 15 | 319 | 20.9 | 40.2 | 0.00 | 0.00 | 0.00 | 48 | 1000.1 |
| 20260504185309 | 15 | 20 | 17.7 | 40.2 | 0.00 | 0.00 | 0.00 | 49 | 1000.1 |
| 20260504185212 | 15 | 28 | 17.7 | 40.2 | 0.00 | 0.00 | 0.00 | 49 | 1000.1 |
| 20260504185120 | 15 | 360 | 19.3 | 41.8 | 0.00 | 0.00 | 0.00 | 48 | 1000.3 |
| 20260504185024 | 15 | 49 | 20.9 | 45.1 | 0.00 | 0.00 | 0.00 | 49 | 1000.2 |
| 20260504184927 | 15 | 12 | 22.5 | 45.1 | 0.00 | 0.00 | 0.00 | 49 | 1000.1 |
| 20260504184805 | 15 | 11 | 20.9 | 45.1 | 0.00 | 0.00 | 0.00 | 49 | 1000.1 |
| 20260504184708 | 15 | 5 | 19.3 | 45.1 | 0.00 | 0.00 | 0.00 | 48 | 1000.2 |
| 20260504184614 | 16 | 36 | 19.3 | 45.1 | 0.00 | 0.00 | 0.00 | 49 | 1000.2 |
| 20260504184522 | 15 | 5 | 19.3 | 45.1 | 0.00 | 0.00 | 0.00 | 49 | 1000.2 |
| 20260504184406 | 15 | 19 | 24.1 | 45.1 | 0.00 | 0.00 | 0.00 | 48 | 1000.2 |
| 20260504184309 | 15 | 313 | 25.7 | 45.1 | 0.00 | 0.00 | 0.00 | 47 | 1000.1 |
| 20260504184214 | 15 | 329 | 22.5 | 45.1 | 0.00 | 0.00 | 0.00 | 50 | 999.9 |
| 20260504184139 | 15 | 29 | 20.9 | 32.2 | 0.00 | 0.00 | 0.00 | 48 | 1000.0 |
| 20260504184023 | 15 | 329 | 20.9 | 32.2 | 0.00 | 0.00 | 0.00 | 48 | 1000.0 |
| 20260504183912 | 15 | 360 | 19.3 | 32.2 | 0.00 | 0.00 | 0.00 | 47 | 1000.0 |
| 20260504183816 | 15 | 9 | 20.9 | 32.2 | 0.00 | 0.00 | 0.00 | 48 | 999.9 |
| 20260504183721 | 15 | 351 | 19.3 | 32.2 | 0.00 | 0.00 | 0.00 | 48 | 1000.0 |
| 20260504183645 | 15 | 346 | 19.3 | 38.6 | 0.00 | 0.00 | 0.00 | 48 | 1000.0 |
| 20260504183549 | 15 | 346 | 20.9 | 38.6 | 0.00 | 0.00 | 0.00 | 50 | 1000.0 |
| 20260504183404 | 15 | 5 | 17.7 | 43.5 | 0.00 | 0.00 | 0.00 | 49 | 999.9 |
| 20260504183308 | 15 | 355 | 14.5 | 43.5 | 0.00 | 0.00 | 0.00 | 49 | 1000.0 |
| 20260504183215 | 15 | 44 | 17.7 | 43.5 | 0.00 | 0.00 | 0.00 | 50 | 999.9 |
| 20260504183140 | 15 | 344 | 16.1 | 43.5 | 0.00 | 0.00 | 0.00 | 49 | 999.9 |
| 20260504183004 | 15 | 311 | 20.9 | 43.5 | 0.00 | 0.00 | 0.00 | 48 | 999.8 |
| 20260504182908 | 15 | 344 | 25.7 | 43.5 | 0.00 | 0.00 | 0.00 | 48 | 999.9 |
| 20260504182811 | 15 | 337 | 29.0 | 43.5 | 0.00 | 0.00 | 0.00 | 48 | 999.9 |
| 20260504182715 | 15 | 360 | 22.5 | 43.5 | 0.00 | 0.00 | 0.00 | 48 | 999.9 |
| 20260504182619 | 15 | 346 | 19.3 | 43.5 | 0.00 | 0.00 | 0.00 | 52 | 1000.0 |
| 20260504182507 | 15 | 38 | 17.7 | 40.2 | 0.00 | 0.00 | 0.00 | 50 | 999.7 |
| 20260504182430 | 15 | 34 | 17.7 | 40.2 | 0.00 | 0.00 | 0.00 | 49 | 999.7 |
| 20260504182306 | 15 | 22 | 17.7 | 40.2 | 0.00 | 0.00 | 0.00 | 49 | 999.7 |
| 20260504182210 | 15 | 355 | 20.9 | 40.2 | 0.00 | 0.00 | 0.00 | 48 | 999.7 |
| 20260504182114 | 15 | 11 | 25.7 | 40.2 | 0.00 | 0.00 | 0.00 | 47 | 999.7 |
| 20260504182019 | 16 | 349 | 27.4 | 40.2 | 0.00 | 0.00 | 0.00 | 48 | 999.6 |
| 20260504181926 | 16 | 5 | 25.7 | 40.2 | 0.00 | 0.00 | 0.00 | 48 | 999.6 |
| 20260504181851 | 16 | 31 | 24.1 | 40.2 | 0.00 | 0.00 | 0.00 | 48 | 999.7 |
| 20260504181706 | 16 | 350 | 24.1 | 37.0 | 0.00 | 0.00 | 0.00 | 49 | 999.6 |
| 20260504181610 | 16 | 348 | 20.9 | 38.6 | 0.00 | 0.00 | 0.00 | 48 | 999.6 |
| 20260504181532 | 16 | 342 | 16.1 | 38.6 | 0.00 | 0.00 | 0.00 | 50 | 999.6 |
| 20260504181414 | 15 | 318 | 16.1 | 38.6 | 0.00 | 0.00 | 0.00 | 51 | 999.6 |
| 20260504181319 | 15 | 348 | 19.3 | 45.1 | 0.00 | 0.00 | 0.00 | 49 | 999.6 |
| 20260504181206 | 15 | 36 | 19.3 | 45.1 | 0.00 | 0.00 | 0.00 | 47 | 999.5 |
| 20260504181108 | 15 | 30 | 19.3 | 46.7 | 0.00 | 0.00 | 0.00 | 47 | 999.5 |
| 20260504181011 | 15 | 344 | 20.9 | 46.7 | 0.00 | 0.00 | 0.00 | 49 | 999.6 |
| 20260504180916 | 16 | 336 | 25.7 | 46.7 | 0.00 | 0.00 | 0.00 | 47 | 999.7 |
| 20260504180818 | 16 | 10 | 27.4 | 46.7 | 0.00 | 0.00 | 0.00 | 47 | 999.7 |
| 20260504180705 | 16 | 350 | 25.7 | 46.7 | 0.00 | 0.00 | 0.00 | 48 | 999.6 |
| 20260504180628 | 16 | 355 | 29.0 | 46.7 | 0.00 | 0.00 | 0.00 | 48 | 999.6 |
| 20260504180505 | 16 | 20 | 30.6 | 46.7 | 0.00 | 0.00 | 0.00 | 47 | 999.6 |
| 20260504180408 | 16 | 26 | 25.7 | 46.7 | 0.00 | 0.00 | 0.00 | 46 | 999.6 |
| 20260504180331 | 16 | 344 | 25.7 | 46.7 | 0.00 | 0.00 | 0.00 | 48 | 999.6 |
| 20260504180215 | 16 | 296 | 24.1 | 38.6 | 0.00 | 0.00 | 0.00 | 46 | 999.5 |
| 20260504180138 | 16 | 360 | 20.9 | 38.6 | 0.00 | 0.00 | 0.00 | 47 | 999.6 |
| 20260504180004 | 16 | 326 | 19.3 | 38.6 | 0.00 | 0.00 | 0.00 | 47 | 999.5 |
| 20260504175927 | 16 | 355 | 20.9 | 38.6 | 0.00 | 0.00 | 0.00 | 47 | 999.4 |
| 20260504175850 | 16 | 360 | 20.9 | 38.6 | 0.00 | 0.00 | 0.00 | 45 | 999.4 |
| 20260504175704 | 16 | 346 | 27.4 | 38.6 | 0.00 | 0.00 | 0.00 | 43 | 999.2 |
| 20260504175608 | 16 | 344 | 24.1 | 38.6 | 0.00 | 0.00 | 0.00 | 44 | 999.3 |
| 20260504175513 | 16 | 360 | 17.7 | 37.0 | 0.00 | 0.00 | 0.00 | 46 | 999.1 |
| 20260504175417 | 16 | 327 | 14.5 | 37.0 | 0.00 | 0.00 | 0.00 | 45 | 999.1 |
| 20260504175304 | 16 | 355 | 16.1 | 37.0 | 0.00 | 0.00 | 0.00 | 44 | 999.1 |
| 20260504175228 | 16 | 355 | 20.9 | 37.0 | 0.00 | 0.00 | 0.00 | 44 | 999.2 |
| 20260504175130 | 16 | 338 | 25.7 | 37.0 | 0.00 | 0.00 | 0.00 | 43 | 999.2 |
| 20260504175012 | 16 | 346 | 24.1 | 37.0 | 0.00 | 0.00 | 0.00 | 44 | 999.1 |
| 20260504174916 | 16 | 323 | 19.3 | 35.4 | 0.00 | 0.00 | 0.00 | 45 | 999.1 |
| 20260504174821 | 16 | 296 | 17.7 | 35.4 | 0.00 | 0.00 | 0.00 | 45 | 998.9 |
| 20260504174705 | 16 | 337 | 19.3 | 43.5 | 0.00 | 0.00 | 0.00 | 43 | 999.2 |
| 20260504174613 | 16 | 342 | 17.7 | 43.5 | 0.00 | 0.00 | 0.00 | 45 | 999.0 |
| 20260504174514 | 16 | 271 | 16.1 | 43.5 | 0.00 | 0.00 | 0.00 | 45 | 999.0 |
| 20260504174440 | 16 | 347 | 17.7 | 43.5 | 0.00 | 0.00 | 0.00 | 45 | 999.1 |
| 20260504174340 | 16 | 360 | 19.3 | 43.5 | 0.00 | 0.00 | 0.00 | 45 | 999.1 |
| 20260504174204 | 16 | 47 | 24.1 | 43.5 | 0.00 | 0.00 | 0.00 | 42 | 999.1 |
| 20260504174107 | 16 | 346 | 25.7 | 43.5 | 0.00 | 0.00 | 0.00 | 42 | 999.1 |
| 20260504174010 | 16 | 340 | 25.7 | 43.5 | 0.00 | 0.00 | 0.00 | 43 | 999.1 |
| 20260504173937 | 16 | 342 | 22.5 | 43.5 | 0.00 | 0.00 | 0.00 | 45 | 999.0 |
| 20260504173820 | 16 | 316 | 20.9 | 38.6 | 0.00 | 0.00 | 0.00 | 44 | 999.1 |
| 20260504173723 | 16 | 15 | 25.7 | 38.6 | 0.00 | 0.00 | 0.00 | 44 | 999.0 |
| 20260504173627 | 16 | 322 | 24.1 | 38.6 | 0.00 | 0.00 | 0.00 | 44 | 999.1 |
| 20260504173510 | 16 | 308 | 22.5 | 38.6 | 0.00 | 0.00 | 0.00 | 44 | 999.1 |
| 20260504173415 | 16 | 320 | 25.7 | 38.6 | 0.00 | 0.00 | 0.00 | 44 | 999.1 |
| 20260504173319 | 16 | 329 | 25.7 | 40.2 | 0.00 | 0.00 | 0.00 | 43 | 999.1 |
| 20260504173227 | 16 | 340 | 20.9 | 45.1 | 0.00 | 0.00 | 0.00 | 42 | 999.1 |
| 20260504173110 | 16 | 355 | 19.3 | 45.1 | 0.00 | 0.00 | 0.00 | 43 | 999.0 |
| 20260504173014 | 16 | 322 | 22.5 | 45.1 | 0.00 | 0.00 | 0.00 | 44 | 999.1 |
| 20260504172918 | 16 | 327 | 22.5 | 45.1 | 0.00 | 0.00 | 0.00 | 44 | 999.1 |
| 20260504172843 | 16 | 309 | 22.5 | 45.1 | 0.00 | 0.00 | 0.00 | 43 | 999.0 |
| 20260504172727 | 16 | 341 | 20.9 | 45.1 | 0.00 | 0.00 | 0.00 | 44 | 999.0 |
| 20260504172609 | 16 | 343 | 24.1 | 45.1 | 0.00 | 0.00 | 0.00 | 44 | 999.0 |
| 20260504172518 | 16 | 326 | 29.0 | 45.1 | 0.00 | 0.00 | 0.00 | 44 | 999.2 |
| 20260504172421 | 16 | 328 | 27.4 | 45.1 | 0.00 | 0.00 | 0.00 | 43 | 999.1 |
| 20260504172325 | 16 | 336 | 25.7 | 35.4 | 0.00 | 0.00 | 0.00 | 42 | 999.0 |
| 20260504172207 | 16 | 333 | 25.7 | 35.4 | 0.00 | 0.00 | 0.00 | 43 | 999.0 |
| 20260504172110 | 16 | 338 | 24.1 | 35.4 | 0.00 | 0.00 | 0.00 | 44 | 998.9 |
| 20260504172013 | 16 | 350 | 17.7 | 35.4 | 0.00 | 0.00 | 0.00 | 44 | 998.9 |
| 20260504171920 | 16 | 360 | 16.1 | 35.4 | 0.00 | 0.00 | 0.00 | 47 | 999.0 |
| 20260504171844 | 16 | 360 | 20.9 | 35.4 | 0.00 | 0.00 | 0.00 | 47 | 998.9 |
| 20260504171707 | 16 | 327 | 24.1 | 35.4 | 0.00 | 0.00 | 0.00 | 48 | 998.9 |
| 20260504171632 | 16 | 306 | 20.9 | 35.4 | 0.00 | 0.00 | 0.00 | 48 | 999.0 |
| 20260504171513 | 16 | 319 | 20.9 | 33.8 | 0.00 | 0.00 | 0.00 | 48 | 999.1 |
| 20260504171438 | 16 | 331 | 22.5 | 33.8 | 0.00 | 0.00 | 0.00 | 50 | 999.1 |
| 20260504171320 | 15 | 291 | 22.5 | 33.8 | 0.00 | 0.00 | 0.00 | 49 | 999.1 |
| 20260504171207 | 15 | 337 | 22.5 | 33.8 | 0.00 | 0.00 | 0.00 | 46 | 999.1 |
| 20260504171132 | 15 | 355 | 19.3 | 32.2 | 0.00 | 0.00 | 0.00 | 47 | 999.3 |
| 20260504171016 | 15 | 329 | 20.9 | 32.2 | 0.00 | 0.00 | 0.00 | 48 | 999.2 |
| 20260504170922 | 15 | 355 | 19.3 | 32.2 | 0.00 | 0.00 | 0.00 | 49 | 999.2 |
| 20260504170805 | 15 | 312 | 19.3 | 32.2 | 0.00 | 0.00 | 0.00 | 50 | 999.2 |
| 20260504170709 | 15 | 321 | 19.3 | 33.8 | 0.00 | 0.00 | 0.00 | 49 | 999.0 |
| 20260504170612 | 15 | 293 | 17.7 | 33.8 | 0.00 | 0.00 | 0.00 | 48 | 999.1 |
| 20260504170519 | 15 | 332 | 16.1 | 33.8 | 0.00 | 0.00 | 0.00 | 50 | 999.0 |
| 20260504170423 | 15 | 311 | 20.9 | 33.8 | 0.00 | 0.00 | 0.00 | 50 | 999.0 |
| 20260504170328 | 15 | 346 | 20.9 | 33.8 | 0.00 | 0.00 | 0.00 | 49 | 999.1 |
| 20260504170212 | 15 | 306 | 19.3 | 33.8 | 0.00 | 0.00 | 0.00 | 48 | 999.0 |
| 20260504170115 | 15 | 341 | 22.5 | 33.8 | 0.00 | 0.00 | 0.00 | 49 | 999.0 |
| 20260504160404 | 16 | 329 | 20.9 | 32.2 | 0.00 | 0.00 | 0.00 | 48 | 998.8 |
| 20260504160329 | 16 | 296 | 19.3 | 32.2 | 0.00 | 0.00 | 0.00 | 46 | 998.8 |
| 20260504160232 | 16 | 360 | 17.7 | 30.6 | 0.00 | 0.00 | 0.00 | 48 | 998.9 |
| 20260504160116 | 16 | 348 | 14.5 | 35.4 | 0.00 | 0.00 | 0.00 | 47 | 998.8 |
| 20260504151127 | 15 | 317 | 19.3 | 43.5 | 0.00 | 0.00 | 0.00 | 47 | 998.4 |
| 20260504151011 | 15 | 327 | 20.9 | 43.5 | 0.00 | 0.00 | 0.00 | 47 | 998.5 |
| 20260504150919 | 15 | 339 | 24.1 | 43.5 | 0.00 | 0.00 | 0.00 | 47 | 998.4 |
| 20260504150825 | 15 | 340 | 24.1 | 43.5 | 0.00 | 0.00 | 0.00 | 46 | 998.3 |
| 20260504150727 | 15 | 5 | 24.1 | 43.5 | 0.00 | 0.00 | 0.00 | 48 | 998.4 |
| 20260504150605 | 15 | 317 | 24.1 | 43.5 | 0.00 | 0.00 | 0.00 | 47 | 998.4 |
| 20260504150529 | 15 | 308 | 24.1 | 43.5 | 0.00 | 0.00 | 0.00 | 48 | 998.5 |
| 20260504150412 | 15 | 311 | 22.5 | 43.5 | 0.00 | 0.00 | 0.00 | 47 | 998.4 |
| 20260504150338 | 15 | 11 | 20.9 | 43.5 | 0.00 | 0.00 | 0.00 | 48 | 998.3 |
| 20260504150241 | 15 | 9 | 22.5 | 38.6 | 0.00 | 0.00 | 0.00 | 46 | 998.3 |
| 20260504150127 | 15 | 349 | 24.1 | 38.6 | 0.00 | 0.00 | 0.00 | 48 | 998.2 |
| 20260504141323 | 15 | 355 | 17.7 | 27.4 | 0.00 | 0.00 | 0.00 | 51 | 998.3 |
| 20260504141207 | 15 | 360 | 14.5 | 27.4 | 0.00 | 0.00 | 0.00 | 51 | 998.3 |
| 20260504141110 | 15 | 299 | 8.0 | 30.6 | 0.00 | 0.00 | 0.00 | 51 | 998.1 |
| 20260504141018 | 15 | 336 | 9.7 | 37.0 | 0.00 | 0.00 | 0.00 | 51 | 998.1 |
| 20260504140921 | 15 | 304 | 12.9 | 37.0 | 0.00 | 0.00 | 0.00 | 51 | 998.3 |
| 20260504140824 | 15 | 16 | 17.7 | 37.0 | 0.00 | 0.00 | 0.00 | 50 | 998.2 |
| 20260504140748 | 15 | 335 | 19.3 | 37.0 | 0.00 | 0.00 | 0.00 | 49 | 998.2 |
| 20260504140604 | 15 | 339 | 16.1 | 37.0 | 0.00 | 0.00 | 0.00 | 51 | 998.2 |
| 20260504140529 | 14 | 22 | 17.7 | 37.0 | 0.00 | 0.00 | 0.00 | 51 | 998.2 |
| 20260504140406 | 14 | 346 | 19.3 | 37.0 | 0.00 | 0.00 | 0.00 | 49 | 998.1 |
| 20260504140314 | 14 | 346 | 22.5 | 37.0 | 0.00 | 0.00 | 0.00 | 49 | 998.2 |
| 20260504140239 | 14 | 355 | 25.7 | 37.0 | 0.00 | 0.00 | 0.00 | 48 | 998.2 |
| 20260504140141 | 14 | 343 | 22.5 | 37.0 | 0.00 | 0.00 | 0.00 | 49 | 998.3 |
| 20260504130711 | 15 | 333 | 24.1 | 40.2 | 0.00 | 0.00 | 0.00 | 53 | 997.6 |
| 20260504130615 | 15 | 360 | 17.7 | 33.8 | 0.00 | 0.00 | 0.00 | 54 | 997.6 |
| 20260504130520 | 15 | 360 | 16.1 | 32.2 | 0.00 | 0.00 | 0.00 | 54 | 997.5 |
| 20260504130428 | 15 | 5 | 12.9 | 33.8 | 0.00 | 0.00 | 0.00 | 55 | 997.4 |
| 20260504130304 | 15 | 348 | 11.3 | 33.8 | 0.00 | 0.00 | 0.00 | 55 | 997.4 |
| 20260504130209 | 15 | 344 | 12.9 | 33.8 | 0.00 | 0.00 | 0.00 | 55 | 997.3 |
| 20260504130113 | 15 | 284 | 19.3 | 33.8 | 0.00 | 0.00 | 0.00 | 55 | 997.3 |
| 20260504120206 | 15 | 313 | 24.1 | 40.2 | 0.00 | 0.00 | 0.00 | 49 | 996.2 |
| 20260504120111 | 15 | 320 | 19.3 | 40.2 | 0.00 | 0.00 | 0.00 | 49 | 996.4 |
| 20260504110709 | 14 | 281 | 14.5 | 25.7 | 0.00 | 0.00 | 0.00 | 49 | 995.6 |
| 20260504110612 | 14 | 285 | 16.1 | 25.7 | 0.00 | 0.00 | 0.00 | 48 | 995.6 |
| 20260504110520 | 14 | 293 | 14.5 | 22.5 | 0.00 | 0.00 | 0.00 | 49 | 995.6 |
| 20260504110423 | 14 | 296 | 14.5 | 22.5 | 0.00 | 0.00 | 0.00 | 48 | 995.6 |
| 20260504110309 | 14 | 277 | 14.5 | 22.5 | 0.00 | 0.00 | 0.00 | 49 | 995.6 |
| 20260504110215 | 14 | 315 | 14.5 | 22.5 | 0.00 | 0.00 | 0.00 | 48 | 995.6 |
| 20260504110119 | 14 | 269 | 14.5 | 22.5 | 0.00 | 0.00 | 0.00 | 48 | 995.7 |
| 20260504100540 | 15 | 284 | 14.5 | 27.4 | 0.00 | 0.00 | 0.00 | 45 | 995.6 |
| 20260504100421 | 15 | 225 | 14.5 | 27.4 | 0.00 | 0.00 | 0.00 | 44 | 995.7 |
| 20260504100326 | 15 | 276 | 14.5 | 27.4 | 0.00 | 0.00 | 0.00 | 44 | 995.7 |
| 20260504100229 | 15 | 255 | 14.5 | 27.4 | 0.00 | 0.00 | 0.00 | 44 | 995.7 |
| 20260504100112 | 15 | 244 | 14.5 | 27.4 | 0.00 | 0.00 | 0.00 | 45 | 995.8 |
| 20260504090106 | 15 | 271 | 14.5 | 27.4 | 0.00 | 0.00 | 0.00 | 44 | 996.7 |
| 20260504081950 | 14 | 250 | 9.7 | 20.9 | 0.00 | 0.00 | 0.00 | 45 | 997.8 |
| 20260504081806 | 14 | 243 | 9.7 | 20.9 | 0.00 | 0.00 | 0.00 | 45 | 997.8 |
| 20260504081730 | 14 | 262 | 11.3 | 20.9 | 0.00 | 0.00 | 0.00 | 44 | 997.9 |
| 20260504081607 | 14 | 236 | 12.9 | 20.9 | 0.00 | 0.00 | 0.00 | 44 | 997.8 |
| 20260504081512 | 14 | 238 | 12.9 | 20.9 | 0.00 | 0.00 | 0.00 | 44 | 997.8 |
| 20260504081420 | 14 | 262 | 9.7 | 17.7 | 0.00 | 0.00 | 0.00 | 45 | 997.8 |
| 20260504081323 | 14 | 273 | 8.0 | 17.7 | 0.00 | 0.00 | 0.00 | 45 | 997.9 |
| 20260504081227 | 14 | 228 | 8.0 | 17.7 | 0.00 | 0.00 | 0.00 | 45 | 997.9 |
| 20260504081129 | 14 | 265 | 11.3 | 17.7 | 0.00 | 0.00 | 0.00 | 44 | 998.0 |
| 20260504081032 | 14 | 247 | 11.3 | 17.7 | 0.00 | 0.00 | 0.00 | 45 | 997.9 |
| 20260504080915 | 14 | 236 | 9.7 | 17.7 | 0.00 | 0.00 | 0.00 | 45 | 998.0 |
| 20260504080820 | 14 | 267 | 9.7 | 17.7 | 0.00 | 0.00 | 0.00 | 44 | 998.0 |
| 20260504080728 | 14 | 236 | 9.7 | 17.7 | 0.00 | 0.00 | 0.00 | 45 | 998.1 |
| 20260504080611 | 14 | 226 | 9.7 | 17.7 | 0.00 | 0.00 | 0.00 | 44 | 998.1 |
| 20260504080516 | 14 | 260 | 9.7 | 17.7 | 0.00 | 0.00 | 0.00 | 45 | 998.1 |
| 20260504080419 | 14 | 234 | 8.0 | 16.1 | 0.00 | 0.00 | 0.00 | 45 | 998.1 |
| 20260504080343 | 14 | 269 | 8.0 | 14.5 | 0.00 | 0.00 | 0.00 | 45 | 998.2 |
| 20260504080227 | 14 | 233 | 8.0 | 14.5 | 0.00 | 0.00 | 0.00 | 45 | 998.2 |
| 20260504080110 | 14 | 246 | 8.0 | 14.5 | 0.00 | 0.00 | 0.00 | 45 | 998.2 |
| 20260504070307 | 14 | 239 | 8.0 | 17.7 | 0.00 | 0.00 | 0.00 | 46 | 999.2 |
| 20260504070211 | 14 | 244 | 9.7 | 17.7 | 0.00 | 0.00 | 0.00 | 46 | 999.3 |
| 20260504070114 | 14 | 236 | 9.7 | 19.3 | 0.00 | 0.00 | 0.00 | 46 | 999.2 |
| 20260504060218 | 14 | 240 | 8.0 | 16.1 | 0.00 | 0.00 | 0.00 | 47 | 1000.6 |
| 20260504060121 | 14 | 255 | 8.0 | 16.1 | 0.00 | 0.00 | 0.00 | 48 | 1000.6 |
| 20260504050705 | 13 | 228 | 6.4 | 12.9 | 0.00 | 0.00 | 0.00 | 49 | 1001.6 |
| 20260504050608 | 13 | 248 | 4.8 | 12.9 | 0.00 | 0.00 | 0.00 | 50 | 1001.6 |
| 20260504050512 | 13 | 254 | 6.4 | 12.9 | 0.00 | 0.00 | 0.00 | 49 | 1001.7 |
| 20260504050420 | 13 | 209 | 6.4 | 12.9 | 0.00 | 0.00 | 0.00 | 49 | 1001.7 |
| 20260504050303 | 13 | 228 | 4.8 | 12.9 | 0.00 | 0.00 | 0.00 | 49 | 1001.8 |
| 20260504050227 | 13 | 231 | 4.8 | 12.9 | 0.00 | 0.00 | 0.00 | 49 | 1001.8 |
| 20260504050104 | 13 | 228 | 4.8 | 12.9 | 0.00 | 0.00 | 0.00 | 49 | 1001.8 |
| 20260504050009 | 13 | 227 | 6.4 | 12.9 | 0.00 | 0.00 | 0.00 | 49 | 1001.8 |
| 20260504045933 | 13 | 235 | 8.0 | 12.9 | 0.00 | 0.00 | 0.00 | 50 | 1001.8 |
| 20260504045817 | 13 | 248 | 6.4 | 11.3 | 0.00 | 0.00 | 0.00 | 50 | 1001.8 |
| 20260504045705 | 13 | 257 | 6.4 | 11.3 | 0.00 | 0.00 | 0.00 | 50 | 1001.8 |
| 20260504045629 | 13 | 239 | 6.4 | 11.3 | 0.00 | 0.00 | 0.00 | 50 | 1001.8 |
| 20260504045554 | 13 | 217 | 6.4 | 9.7 | 0.00 | 0.00 | 0.00 | 50 | 1001.8 |
| 20260504045407 | 13 | 200 | 4.8 | 9.7 | 0.00 | 0.00 | 0.00 | 51 | 1001.9 |
| 20260504045310 | 13 | 236 | 6.4 | 9.7 | 0.00 | 0.00 | 0.00 | 50 | 1001.9 |
| 20260504045234 | 13 | 246 | 6.4 | 9.7 | 0.00 | 0.00 | 0.00 | 50 | 1001.9 |
| 20260504045118 | 13 | 221 | 6.4 | 11.3 | 0.00 | 0.00 | 0.00 | 51 | 1002.0 |
| 20260504045004 | 13 | 199 | 6.4 | 11.3 | 0.00 | 0.00 | 0.00 | 51 | 1001.9 |
| 20260504044927 | 13 | 240 | 6.4 | 11.3 | 0.00 | 0.00 | 0.00 | 51 | 1002.0 |
| 20260504044804 | 12 | 228 | 6.4 | 9.7 | 0.00 | 0.00 | 0.00 | 53 | 1001.9 |
| 20260504044708 | 12 | 230 | 4.8 | 9.7 | 0.00 | 0.00 | 0.00 | 53 | 1002.0 |
| 20260504044610 | 12 | 219 | 4.8 | 9.7 | 0.00 | 0.00 | 0.00 | 53 | 1001.9 |
| 20260504044515 | 12 | 221 | 6.4 | 9.7 | 0.00 | 0.00 | 0.00 | 53 | 1002.0 |
| 20260504044421 | 12 | 220 | 6.4 | 9.7 | 0.00 | 0.00 | 0.00 | 54 | 1002.1 |
| 20260504044305 | 12 | 220 | 4.8 | 9.7 | 0.00 | 0.00 | 0.00 | 54 | 1002.0 |
| 20260504044210 | 12 | 228 | 4.8 | 9.7 | 0.00 | 0.00 | 0.00 | 55 | 1002.1 |
| 20260504044114 | 12 | 232 | 4.8 | 9.7 | 0.00 | 0.00 | 0.00 | 55 | 1002.2 |
| 20260504044017 | 12 | 225 | 4.8 | 9.7 | 0.00 | 0.00 | 0.00 | 56 | 1002.2 |
| 20260504043941 | 12 | 229 | 4.8 | 9.7 | 0.00 | 0.00 | 0.00 | 56 | 1002.2 |
| 20260504043806 | 11 | 238 | 4.8 | 11.3 | 0.00 | 0.00 | 0.00 | 57 | 1002.1 |
| 20260504043709 | 11 | 214 | 4.8 | 11.3 | 0.00 | 0.00 | 0.00 | 58 | 1002.1 |
| 20260504043611 | 11 | 214 | 6.4 | 11.3 | 0.00 | 0.00 | 0.00 | 58 | 1002.2 |
| 20260504043516 | 11 | 237 | 6.4 | 11.3 | 0.00 | 0.00 | 0.00 | 59 | 1002.2 |
| 20260504043419 | 11 | 241 | 4.8 | 11.3 | 0.00 | 0.00 | 0.00 | 62 | 1002.2 |
| 20260504043322 | 11 | 232 | 4.8 | 6.4 | 0.00 | 0.00 | 0.00 | 61 | 1002.3 |
| 20260504043229 | 11 | 235 | 4.8 | 6.4 | 0.00 | 0.00 | 0.00 | 61 | 1002.3 |
| 20260504043105 | 11 | 236 | 4.8 | 6.4 | 0.00 | 0.00 | 0.00 | 62 | 1002.3 |
| 20260504043009 | 11 | 236 | 4.8 | 6.4 | 0.00 | 0.00 | 0.00 | 64 | 1002.3 |
| 20260504042912 | 11 | 234 | 4.8 | 6.4 | 0.00 | 0.00 | 0.00 | 64 | 1002.4 |
| 20260504042816 | 11 | 237 | 4.8 | 6.4 | 0.00 | 0.00 | 0.00 | 63 | 1002.4 |
| 20260504042718 | 11 | 238 | 4.8 | 6.4 | 0.00 | 0.00 | 0.00 | 64 | 1002.4 |
| 20260504042606 | 11 | 243 | 3.2 | 9.7 | 0.00 | 0.00 | 0.00 | 63 | 1002.5 |
| 20260504042530 | 11 | 243 | 4.8 | 9.7 | 0.00 | 0.00 | 0.00 | 64 | 1002.4 |
| 20260504042412 | 11 | 243 | 4.8 | 9.7 | 0.00 | 0.00 | 0.00 | 65 | 1002.4 |
| 20260504042317 | 11 | 243 | 4.8 | 9.7 | 0.00 | 0.00 | 0.00 | 65 | 1002.5 |
| 20260504042220 | 11 | 244 | 4.8 | 9.7 | 0.00 | 0.00 | 0.00 | 65 | 1002.5 |
| 20260504042122 | 11 | 248 | 3.2 | 9.7 | 0.00 | 0.00 | 0.00 | 63 | 1002.5 |
| 20260504042010 | 11 | 259 | 3.2 | 9.7 | 0.00 | 0.00 | 0.00 | 65 | 1002.4 |
| 20260504041916 | 10 | 238 | 4.8 | 9.7 | 0.00 | 0.00 | 0.00 | 64 | 1002.5 |
| 20260504041819 | 10 | 238 | 4.8 | 9.7 | 0.00 | 0.00 | 0.00 | 64 | 1002.6 |
| 20260504041722 | 10 | 234 | 4.8 | 8.0 | 0.00 | 0.00 | 0.00 | 65 | 1002.5 |
| 20260504041645 | 10 | 253 | 4.8 | 6.4 | 0.00 | 0.00 | 0.00 | 65 | 1002.6 |
| 20260504041507 | 10 | 239 | 4.8 | 6.4 | 0.00 | 0.00 | 0.00 | 66 | 1002.6 |
| 20260504041409 | 10 | 240 | 4.8 | 6.4 | 0.00 | 0.00 | 0.00 | 68 | 1002.7 |
| 20260504041336 | 10 | 240 | 4.8 | 6.4 | 0.00 | 0.00 | 0.00 | 67 | 1002.7 |
| 20260504041240 | 10 | 236 | 4.8 | 6.4 | 0.00 | 0.00 | 0.00 | 67 | 1002.7 |
| 20260504041121 | 10 | 236 | 3.2 | 6.4 | 0.00 | 0.00 | 0.00 | 68 | 1002.8 |
| 20260504041024 | 10 | 241 | 3.2 | 6.4 | 0.00 | 0.00 | 0.00 | 68 | 1002.7 |
| 20260504040906 | 10 | 242 | 3.2 | 6.4 | 0.00 | 0.00 | 0.00 | 68 | 1002.8 |
| 20260504040831 | 10 | 242 | 3.2 | 6.4 | 0.00 | 0.00 | 0.00 | 68 | 1002.8 |
| 20260504040713 | 10 | 242 | 3.2 | 6.4 | 0.00 | 0.00 | 0.00 | 68 | 1002.9 |
| 20260504040617 | 10 | 246 | 3.2 | 6.4 | 0.00 | 0.00 | 0.00 | 67 | 1002.9 |
| 20260504040525 | 10 | 246 | 3.2 | 6.4 | 0.00 | 0.00 | 0.00 | 67 | 1002.9 |
| 20260504040448 | 10 | 246 | 3.2 | 6.4 | 0.00 | 0.00 | 0.00 | 67 | 1003.0 |
| 20260504040304 | 10 | 250 | 3.2 | 6.4 | 0.00 | 0.00 | 0.00 | 67 | 1003.0 |
| 20260504040209 | 10 | 250 | 3.2 | 6.4 | 0.00 | 0.00 | 0.00 | 66 | 1003.0 |
| 20260504040111 | 10 | 240 | 3.2 | 6.4 | 0.00 | 0.00 | 0.00 | 66 | 1003.0 |
| 20260504040015 | 10 | 240 | 3.2 | 6.4 | 0.00 | 0.00 | 0.00 | 65 | 1003.0 |
| 20260504035903 | 10 | 240 | 3.2 | 6.4 | 0.00 | 0.00 | 0.00 | 65 | 1003.0 |
| 20260504035827 | 10 | 240 | 3.2 | 6.4 | 0.00 | 0.00 | 0.00 | 65 | 1003.1 |
| 20260504035704 | 10 | 244 | 3.2 | 6.4 | 0.00 | 0.00 | 0.00 | 67 | 1003.0 |
| 20260504035608 | 10 | 244 | 3.2 | 6.4 | 0.00 | 0.00 | 0.00 | 67 | 1003.0 |
| 20260504035513 | 10 | 244 | 3.2 | 6.4 | 0.00 | 0.00 | 0.00 | 67 | 1003.1 |
| 20260504035417 | 10 | 246 | 3.2 | 6.4 | 0.00 | 0.00 | 0.00 | 68 | 1003.1 |
| 20260504035306 | 10 | 246 | 3.2 | 6.4 | 0.00 | 0.00 | 0.00 | 67 | 1003.1 |
| 20260504035209 | 10 | 246 | 3.2 | 6.4 | 0.00 | 0.00 | 0.00 | 67 | 1003.1 |
| 20260504035112 | 10 | 248 | 3.2 | 4.8 | 0.00 | 0.00 | 0.00 | 69 | 1003.2 |
| 20260504035016 | 10 | 248 | 3.2 | 4.8 | 0.00 | 0.00 | 0.00 | 68 | 1003.2 |
| 20260504034920 | 10 | 248 | 3.2 | 4.8 | 0.00 | 0.00 | 0.00 | 68 | 1003.3 |
| 20260504034806 | 10 | 248 | 3.2 | 4.8 | 0.00 | 0.00 | 0.00 | 69 | 1003.3 |
| 20260504034714 | 10 | 248 | 3.2 | 4.8 | 0.00 | 0.00 | 0.00 | 69 | 1003.2 |
| 20260504034618 | 10 | 248 | 3.2 | 4.8 | 0.00 | 0.00 | 0.00 | 69 | 1003.2 |
| 20260504034523 | 10 | 248 | 3.2 | 4.8 | 0.00 | 0.00 | 0.00 | 69 | 1003.3 |
| 20260504034407 | 10 | 248 | 3.2 | 4.8 | 0.00 | 0.00 | 0.00 | 69 | 1003.3 |
| 20260504034310 | 10 | 248 | 3.2 | 4.8 | 0.00 | 0.00 | 0.00 | 69 | 1003.3 |
| 20260504034215 | 10 | 248 | 3.2 | 4.8 | 0.00 | 0.00 | 0.00 | 70 | 1003.4 |
| 20260504034103 | 10 | 248 | 1.6 | 4.8 | 0.00 | 0.00 | 0.00 | 70 | 1003.3 |
| 20260504034028 | 10 | 248 | 3.2 | 4.8 | 0.00 | 0.00 | 0.00 | 71 | 1003.3 |
| 20260504033904 | 10 | 248 | 3.2 | 4.8 | 0.00 | 0.00 | 0.00 | 71 | 1003.4 |
| 20260504033808 | 10 | 249 | 3.2 | 4.8 | 0.00 | 0.00 | 0.00 | 71 | 1003.3 |
| 20260504033714 | 10 | 250 | 3.2 | 4.8 | 0.00 | 0.00 | 0.00 | 70 | 1003.4 |
| 20260504033616 | 10 | 250 | 3.2 | 4.8 | 0.00 | 0.00 | 0.00 | 70 | 1003.5 |
| 20260504033504 | 10 | 251 | 3.2 | 4.8 | 0.00 | 0.00 | 0.00 | 70 | 1003.5 |
| 20260504033408 | 10 | 251 | 3.2 | 4.8 | 0.00 | 0.00 | 0.00 | 70 | 1003.5 |
| 20260504033310 | 10 | 252 | 3.2 | 4.8 | 0.00 | 0.00 | 0.00 | 70 | 1003.5 |
| 20260504033216 | 10 | 254 | 3.2 | 4.8 | 0.00 | 0.00 | 0.00 | 69 | 1003.5 |
| 20260504033119 | 10 | 254 | 3.2 | 4.8 | 0.00 | 0.00 | 0.00 | 70 | 1003.5 |
| 20260504033021 | 10 | 256 | 3.2 | 4.8 | 0.00 | 0.00 | 0.00 | 70 | 1003.6 |
| 20260504032948 | 10 | 257 | 3.2 | 4.8 | 0.00 | 0.00 | 0.00 | 69 | 1003.7 |
| 20260504032803 | 10 | 257 | 3.2 | 4.8 | 0.00 | 0.00 | 0.00 | 68 | 1003.7 |
| 20260504032707 | 10 | 257 | 3.2 | 4.8 | 0.00 | 0.00 | 0.00 | 67 | 1003.7 |
| 20260504032611 | 10 | 257 | 3.2 | 4.8 | 0.00 | 0.00 | 0.00 | 67 | 1003.7 |
| 20260504032537 | 10 | 257 | 3.2 | 4.8 | 0.00 | 0.00 | 0.00 | 66 | 1003.7 |
| 20260504032420 | 10 | 257 | 3.2 | 4.8 | 0.00 | 0.00 | 0.00 | 66 | 1003.8 |
| 20260504032307 | 10 | 257 | 3.2 | 4.8 | 0.00 | 0.00 | 0.00 | 66 | 1003.8 |
| 20260504032230 | 10 | 257 | 3.2 | 4.8 | 0.00 | 0.00 | 0.00 | 65 | 1003.9 |
| 20260504032106 | 10 | 259 | 3.2 | 4.8 | 0.00 | 0.00 | 0.00 | 66 | 1003.8 |
| 20260504032030 | 10 | 259 | 3.2 | 4.8 | 0.00 | 0.00 | 0.00 | 66 | 1003.9 |
| 20260504031905 | 10 | 259 | 1.6 | 4.8 | 0.00 | 0.00 | 0.00 | 66 | 1003.8 |
| 20260504031809 | 10 | 259 | 3.2 | 4.8 | 0.00 | 0.00 | 0.00 | 66 | 1003.9 |
| 20260504031734 | 10 | 259 | 3.2 | 4.8 | 0.00 | 0.00 | 0.00 | 66 | 1004.0 |
| 20260504031622 | 10 | 259 | 3.2 | 4.8 | 0.00 | 0.00 | 0.00 | 65 | 1004.0 |
| 20260504031527 | 10 | 259 | 3.2 | 4.8 | 0.00 | 0.00 | 0.00 | 65 | 1004.0 |
| 20260504031403 | 10 | 259 | 1.6 | 3.2 | 0.00 | 0.00 | 0.00 | 66 | 1004.0 |
| 20260504031308 | 10 | 259 | 3.2 | 3.2 | 0.00 | 0.00 | 0.00 | 66 | 1004.0 |
| 20260504031210 | 10 | 259 | 1.6 | 3.2 | 0.00 | 0.00 | 0.00 | 66 | 1004.0 |
| 20260504031114 | 10 | 259 | 1.6 | 3.2 | 0.00 | 0.00 | 0.00 | 66 | 1004.1 |
| 20260504031023 | 11 | 259 | 1.6 | 4.8 | 0.00 | 0.00 | 0.00 | 66 | 1004.1 |
| 20260504030927 | 11 | 259 | 3.2 | 4.8 | 0.00 | 0.00 | 0.00 | 66 | 1004.1 |
| 20260504030810 | 11 | 259 | 1.6 | 4.8 | 0.00 | 0.00 | 0.00 | 66 | 1004.1 |
| 20260504030735 | 11 | 259 | 1.6 | 4.8 | 0.00 | 0.00 | 0.00 | 66 | 1004.1 |
| 20260504030618 | 11 | 259 | 1.6 | 4.8 | 0.00 | 0.00 | 0.00 | 66 | 1004.0 |
| 20260504030522 | 11 | 259 | 1.6 | 4.8 | 0.00 | 0.00 | 0.00 | 65 | 1004.1 |
| 20260504030407 | 11 | 259 | 3.2 | 4.8 | 0.00 | 0.00 | 0.00 | 65 | 1004.1 |
| 20260504030334 | 11 | 259 | 3.2 | 4.8 | 0.00 | 0.00 | 0.00 | 65 | 1004.1 |
| 20260504030218 | 11 | 259 | 3.2 | 4.8 | 0.00 | 0.00 | 0.00 | 64 | 1004.1 |
| 20260504030121 | 11 | 259 | 3.2 | 4.8 | 0.00 | 0.00 | 0.00 | 64 | 1004.2 |
| 20260504030005 | 11 | 259 | 3.2 | 4.8 | 0.00 | 0.00 | 0.00 | 64 | 1004.1 |
| 20260504025927 | 11 | 259 | 3.2 | 4.8 | 0.00 | 0.00 | 0.00 | 62 | 1004.2 |
| 20260504025808 | 11 | 259 | 3.2 | 4.8 | 0.00 | 0.00 | 0.00 | 61 | 1004.1 |
| 20260504025711 | 11 | 259 | 3.2 | 4.8 | 0.00 | 0.00 | 0.00 | 61 | 1004.2 |
| 20260504025639 | 11 | 259 | 3.2 | 4.8 | 0.00 | 0.00 | 0.00 | 61 | 1004.2 |
| 20260504025541 | 11 | 259 | 3.2 | 4.8 | 0.00 | 0.00 | 0.00 | 61 | 1004.2 |
| 20260504025424 | 11 | 259 | 3.2 | 4.8 | 0.00 | 0.00 | 0.00 | 60 | 1004.2 |
| 20260504025328 | 11 | 259 | 3.2 | 4.8 | 0.00 | 0.00 | 0.00 | 61 | 1004.2 |
| 20260504025204 | 11 | 260 | 3.2 | 4.8 | 0.00 | 0.00 | 0.00 | 60 | 1004.2 |
| 20260504025128 | 11 | 259 | 3.2 | 4.8 | 0.00 | 0.00 | 0.00 | 59 | 1004.2 |
| 20260504025030 | 11 | 260 | 3.2 | 4.8 | 0.00 | 0.00 | 0.00 | 59 | 1004.2 |
| 20260504024931 | 11 | 259 | 3.2 | 4.8 | 0.00 | 0.00 | 0.00 | 59 | 1004.3 |
| 20260504024813 | 11 | 260 | 3.2 | 4.8 | 0.00 | 0.00 | 0.00 | 59 | 1004.3 |
| 20260504024720 | 11 | 259 | 3.2 | 4.8 | 0.00 | 0.00 | 0.00 | 57 | 1004.3 |
| 20260504024605 | 11 | 260 | 3.2 | 4.8 | 0.00 | 0.00 | 0.00 | 57 | 1004.3 |
| 20260504024529 | 11 | 260 | 3.2 | 4.8 | 0.00 | 0.00 | 0.00 | 57 | 1004.3 |
| 20260504024409 | 11 | 259 | 3.2 | 4.8 | 0.00 | 0.00 | 0.00 | 57 | 1004.3 |
| 20260504024333 | 12 | 260 | 3.2 | 4.8 | 0.00 | 0.00 | 0.00 | 57 | 1004.3 |
| 20260504024218 | 12 | 260 | 3.2 | 4.8 | 0.00 | 0.00 | 0.00 | 59 | 1004.3 |
| 20260504024142 | 12 | 260 | 3.2 | 4.8 | 0.00 | 0.00 | 0.00 | 56 | 1004.4 |
| 20260504024028 | 12 | 260 | 3.2 | 4.8 | 0.00 | 0.00 | 0.00 | 55 | 1004.3 |
| 20260504023905 | 12 | 264 | 1.6 | 4.8 | 0.00 | 0.00 | 0.00 | 54 | 1004.3 |
| 20260504023828 | 12 | 264 | 1.6 | 3.2 | 0.00 | 0.00 | 0.00 | 56 | 1004.3 |
| 20260504023705 | 12 | 270 | 1.6 | 3.2 | 0.00 | 0.00 | 0.00 | 55 | 1004.4 |
| 20260504023611 | 12 | 270 | 1.6 | 3.2 | 0.00 | 0.00 | 0.00 | 56 | 1004.4 |
| 20260504023535 | 12 | 270 | 0.0 | 3.2 | 0.00 | 0.00 | 0.00 | 56 | 1004.4 |
| 20260504023417 | 12 | 270 | 0.0 | 3.2 | 0.00 | 0.00 | 0.00 | 58 | 1004.3 |
| 20260504023307 | 12 | 270 | 1.6 | 3.2 | 0.00 | 0.00 | 0.00 | 57 | 1004.4 |
| 20260504023211 | 12 | 270 | 1.6 | 3.2 | 0.00 | 0.00 | 0.00 | 56 | 1004.4 |
| 20260504023114 | 12 | 270 | 1.6 | 3.2 | 0.00 | 0.00 | 0.00 | 55 | 1004.4 |
| 20260504023019 | 12 | 270 | 1.6 | 3.2 | 0.00 | 0.00 | 0.00 | 54 | 1004.4 |
| 20260504022923 | 12 | 270 | 1.6 | 3.2 | 0.00 | 0.00 | 0.00 | 52 | 1004.4 |
| 20260504022812 | 12 | 270 | 1.6 | 3.2 | 0.00 | 0.00 | 0.00 | 52 | 1004.4 |
| 20260504022717 | 12 | 270 | 1.6 | 3.2 | 0.00 | 0.00 | 0.00 | 51 | 1004.4 |
| 20260504022620 | 12 | 270 | 1.6 | 3.2 | 0.00 | 0.00 | 0.00 | 51 | 1004.4 |
| 20260504022543 | 12 | 270 | 1.6 | 3.2 | 0.00 | 0.00 | 0.00 | 51 | 1004.4 |
| 20260504022427 | 12 | 270 | 1.6 | 3.2 | 0.00 | 0.00 | 0.00 | 52 | 1004.4 |
| 20260504022351 | 12 | 270 | 1.6 | 3.2 | 0.00 | 0.00 | 0.00 | 53 | 1004.4 |
| 20260504022208 | 12 | 270 | 1.6 | 3.2 | 0.00 | 0.00 | 0.00 | 50 | 1004.3 |
| 20260504022132 | 12 | 270 | 1.6 | 3.2 | 0.00 | 0.00 | 0.00 | 50 | 1004.3 |
| 20260504022039 | 12 | 270 | 1.6 | 3.2 | 0.00 | 0.00 | 0.00 | 51 | 1004.3 |
| 20260504021943 | 12 | 270 | 1.6 | 3.2 | 0.00 | 0.00 | 0.00 | 51 | 1004.4 |
| 20260504021807 | 12 | 270 | 1.6 | 3.2 | 0.00 | 0.00 | 0.00 | 52 | 1004.3 |
| 20260504021731 | 12 | 270 | 1.6 | 3.2 | 0.00 | 0.00 | 0.00 | 52 | 1004.3 |
| 20260504021607 | 12 | 270 | 1.6 | 3.2 | 0.00 | 0.00 | 0.00 | 50 | 1004.3 |
| 20260504021512 | 12 | 270 | 1.6 | 4.8 | 0.00 | 0.00 | 0.00 | 50 | 1004.4 |
| 20260504021416 | 12 | 270 | 1.6 | 4.8 | 0.00 | 0.00 | 0.00 | 50 | 1004.3 |
| 20260504021305 | 13 | 270 | 1.6 | 4.8 | 0.00 | 0.00 | 0.00 | 50 | 1004.3 |
| 20260504021229 | 13 | 270 | 1.6 | 4.8 | 0.00 | 0.00 | 0.00 | 50 | 1004.3 |
| 20260504021134 | 13 | 270 | 1.6 | 4.8 | 0.00 | 0.00 | 0.00 | 51 | 1004.3 |
| 20260504021035 | 13 | 270 | 1.6 | 4.8 | 0.00 | 0.00 | 0.00 | 50 | 1004.3 |
| 20260504020939 | 13 | 270 | 1.6 | 4.8 | 0.00 | 0.00 | 0.00 | 50 | 1004.3 |
| 20260504020841 | 13 | 270 | 1.6 | 4.8 | 0.00 | 0.00 | 0.00 | 51 | 1004.3 |
| 20260504020704 | 13 | 270 | 1.6 | 4.8 | 0.00 | 0.00 | 0.00 | 50 | 1004.4 |
| 20260504020608 | 13 | 270 | 1.6 | 4.8 | 0.00 | 0.00 | 0.00 | 49 | 1004.3 |
| 20260504020517 | 13 | 270 | 1.6 | 4.8 | 0.00 | 0.00 | 0.00 | 48 | 1004.3 |
| 20260504020421 | 13 | 270 | 1.6 | 4.8 | 0.00 | 0.00 | 0.00 | 49 | 1004.4 |
| 20260504020326 | 13 | 270 | 1.6 | 4.8 | 0.00 | 0.00 | 0.00 | 48 | 1004.3 |
| 20260504020228 | 13 | 270 | 1.6 | 4.8 | 0.00 | 0.00 | 0.00 | 48 | 1004.3 |
| 20260504020111 | 13 | 270 | 3.2 | 6.4 | 0.00 | 0.00 | 0.00 | 49 | 1004.3 |
| 20260504020036 | 13 | 270 | 3.2 | 6.4 | 0.00 | 0.00 | 0.00 | 48 | 1004.3 |
| 20260504015939 | 13 | 270 | 3.2 | 6.4 | 0.00 | 0.00 | 0.00 | 48 | 1004.3 |
| 20260504015807 | 13 | 270 | 3.2 | 6.4 | 0.00 | 0.00 | 0.00 | 48 | 1004.3 |
| 20260504015732 | 13 | 270 | 3.2 | 6.4 | 0.00 | 0.00 | 0.00 | 48 | 1004.3 |
| 20260504015615 | 13 | 270 | 3.2 | 6.4 | 0.00 | 0.00 | 0.00 | 47 | 1004.4 |
| 20260504015519 | 13 | 270 | 3.2 | 6.4 | 0.00 | 0.00 | 0.00 | 48 | 1004.3 |
| 20260504015424 | 14 | 270 | 3.2 | 6.4 | 0.00 | 0.00 | 0.00 | 48 | 1004.3 |
| 20260504015308 | 14 | 270 | 3.2 | 6.4 | 0.00 | 0.00 | 0.00 | 46 | 1004.3 |
| 20260504015212 | 14 | 274 | 3.2 | 4.8 | 0.00 | 0.00 | 0.00 | 46 | 1004.3 |
| 20260504015141 | 14 | 274 | 3.2 | 4.8 | 0.00 | 0.00 | 0.00 | 46 | 1004.3 |
| 20260504015023 | 14 | 274 | 3.2 | 4.8 | 0.00 | 0.00 | 0.00 | 45 | 1004.2 |
| 20260504014927 | 14 | 275 | 3.2 | 4.8 | 0.00 | 0.00 | 0.00 | 45 | 1004.3 |
| 20260504014829 | 14 | 275 | 3.2 | 4.8 | 0.00 | 0.00 | 0.00 | 44 | 1004.3 |
| 20260504014712 | 15 | 275 | 3.2 | 4.8 | 0.00 | 0.00 | 0.00 | 44 | 1004.3 |
| 20260504014617 | 15 | 276 | 3.2 | 4.8 | 0.00 | 0.00 | 0.00 | 45 | 1004.3 |
| 20260504014542 | 15 | 276 | 3.2 | 4.8 | 0.00 | 0.00 | 0.00 | 44 | 1004.3 |
| 20260504014409 | 15 | 276 | 3.2 | 4.8 | 0.00 | 0.00 | 0.00 | 44 | 1004.3 |
| 20260504014313 | 15 | 276 | 3.2 | 4.8 | 0.00 | 0.00 | 0.00 | 44 | 1004.3 |
| 20260504014216 | 15 | 276 | 3.2 | 4.8 | 0.00 | 0.00 | 0.00 | 43 | 1004.3 |
| 20260504014121 | 15 | 276 | 3.2 | 4.8 | 0.00 | 0.00 | 0.00 | 43 | 1004.3 |
| 20260504014005 | 15 | 276 | 3.2 | 4.8 | 0.00 | 0.00 | 0.00 | 43 | 1004.3 |
| 20260504013929 | 15 | 277 | 3.2 | 4.8 | 0.00 | 0.00 | 0.00 | 43 | 1004.3 |
| 20260504013832 | 15 | 277 | 3.2 | 4.8 | 0.00 | 0.00 | 0.00 | 43 | 1004.3 |
| 20260504013718 | 15 | 277 | 1.6 | 4.8 | 0.00 | 0.00 | 0.00 | 41 | 1004.2 |
| 20260504013623 | 15 | 277 | 3.2 | 4.8 | 0.00 | 0.00 | 0.00 | 42 | 1004.3 |
| 20260504013527 | 15 | 277 | 3.2 | 4.8 | 0.00 | 0.00 | 0.00 | 42 | 1004.3 |
| 20260504013410 | 15 | 277 | 3.2 | 4.8 | 0.00 | 0.00 | 0.00 | 41 | 1004.3 |
| 20260504013314 | 15 | 277 | 3.2 | 4.8 | 0.00 | 0.00 | 0.00 | 41 | 1004.3 |
| 20260504013239 | 15 | 277 | 3.2 | 4.8 | 0.00 | 0.00 | 0.00 | 41 | 1004.3 |
| 20260504013120 | 15 | 277 | 3.2 | 6.4 | 0.00 | 0.00 | 0.00 | 42 | 1004.4 |
| 20260504013009 | 15 | 277 | 3.2 | 6.4 | 0.00 | 0.00 | 0.00 | 42 | 1004.3 |
| 20260504012934 | 16 | 277 | 3.2 | 6.4 | 0.00 | 0.00 | 0.00 | 41 | 1004.3 |
| 20260504012816 | 16 | 277 | 3.2 | 6.4 | 0.00 | 0.00 | 0.00 | 43 | 1004.4 |
| 20260504012740 | 16 | 277 | 3.2 | 8.0 | 0.00 | 0.00 | 0.00 | 42 | 1004.4 |
| 20260504012624 | 16 | 277 | 3.2 | 8.0 | 0.00 | 0.00 | 0.00 | 41 | 1004.3 |
| 20260504012528 | 16 | 279 | 3.2 | 8.0 | 0.00 | 0.00 | 0.00 | 43 | 1004.3 |
| 20260504012411 | 16 | 279 | 4.8 | 8.0 | 0.00 | 0.00 | 0.00 | 42 | 1004.3 |
| 20260504012320 | 16 | 279 | 4.8 | 8.0 | 0.00 | 0.00 | 0.00 | 42 | 1004.3 |
| 20260504012244 | 16 | 281 | 4.8 | 8.0 | 0.00 | 0.00 | 0.00 | 41 | 1004.3 |
| 20260504012108 | 16 | 283 | 4.8 | 8.0 | 0.00 | 0.00 | 0.00 | 42 | 1004.4 |
| 20260504012011 | 16 | 283 | 4.8 | 8.0 | 0.00 | 0.00 | 0.00 | 42 | 1004.4 |
| 20260504011936 | 16 | 283 | 6.4 | 8.0 | 0.00 | 0.00 | 0.00 | 44 | 1004.4 |
| 20260504011819 | 16 | 271 | 4.8 | 8.0 | 0.00 | 0.00 | 0.00 | 41 | 1004.4 |
| 20260504011723 | 16 | 271 | 4.8 | 8.0 | 0.00 | 0.00 | 0.00 | 41 | 1004.4 |
| 20260504011612 | 16 | 271 | 4.8 | 11.3 | 0.00 | 0.00 | 0.00 | 42 | 1004.4 |
| 20260504011517 | 16 | 271 | 4.8 | 11.3 | 0.00 | 0.00 | 0.00 | 41 | 1004.4 |
| 20260504011440 | 16 | 270 | 4.8 | 11.3 | 0.00 | 0.00 | 0.00 | 41 | 1004.4 |
| 20260504011323 | 17 | 284 | 4.8 | 11.3 | 0.00 | 0.00 | 0.00 | 41 | 1004.4 |
| 20260504011228 | 17 | 284 | 4.8 | 11.3 | 0.00 | 0.00 | 0.00 | 41 | 1004.5 |
| 20260504011106 | 17 | 282 | 4.8 | 16.1 | 0.00 | 0.00 | 0.00 | 40 | 1004.4 |
| 20260504011015 | 17 | 282 | 4.8 | 16.1 | 0.00 | 0.00 | 0.00 | 41 | 1004.4 |
| 20260504010940 | 17 | 281 | 6.4 | 16.1 | 0.00 | 0.00 | 0.00 | 41 | 1004.5 |
| 20260504010822 | 17 | 284 | 6.4 | 16.1 | 0.00 | 0.00 | 0.00 | 39 | 1004.4 |
| 20260504010707 | 17 | 282 | 8.0 | 16.1 | 0.00 | 0.00 | 0.00 | 39 | 1004.4 |
| 20260504010630 | 17 | 283 | 8.0 | 16.1 | 0.00 | 0.00 | 0.00 | 39 | 1004.4 |
| 20260504010508 | 17 | 292 | 8.0 | 16.1 | 0.00 | 0.00 | 0.00 | 38 | 1004.4 |
| 20260504010433 | 17 | 291 | 9.7 | 16.1 | 0.00 | 0.00 | 0.00 | 37 | 1004.4 |
| 20260504010320 | 17 | 325 | 8.0 | 16.1 | 0.00 | 0.00 | 0.00 | 37 | 1004.4 |
| 20260504010243 | 17 | 270 | 4.8 | 11.3 | 0.00 | 0.00 | 0.00 | 38 | 1004.4 |
| 20260504010107 | 17 | 296 | 6.4 | 11.3 | 0.00 | 0.00 | 0.00 | 39 | 1004.4 |
| 20260504010012 | 17 | 296 | 6.4 | 11.3 | 0.00 | 0.00 | 0.00 | 36 | 1004.4 |
| 20260504005916 | 18 | 302 | 6.4 | 14.5 | 0.00 | 0.00 | 0.00 | 39 | 1004.5 |
| 20260504005820 | 18 | 282 | 6.4 | 17.7 | 0.00 | 0.00 | 0.00 | 39 | 1004.5 |
| 20260504005708 | 18 | 284 | 6.4 | 19.3 | 0.00 | 0.00 | 0.00 | 39 | 1004.4 |
| 20260504005611 | 18 | 281 | 6.4 | 19.3 | 0.00 | 0.00 | 0.00 | 36 | 1004.4 |
| 20260504005515 | 18 | 295 | 6.4 | 19.3 | 0.00 | 0.00 | 0.00 | 35 | 1004.5 |
| 20260504005419 | 18 | 306 | 6.4 | 19.3 | 0.00 | 0.00 | 0.00 | 35 | 1004.4 |
| 20260504005323 | 18 | 306 | 8.0 | 19.3 | 0.00 | 0.00 | 0.00 | 35 | 1004.5 |
| 20260504005227 | 18 | 300 | 9.7 | 19.3 | 0.00 | 0.00 | 0.00 | 34 | 1004.5 |
| 20260504005130 | 18 | 308 | 12.9 | 19.3 | 0.00 | 0.00 | 0.00 | 35 | 1004.5 |
| 20260504005016 | 18 | 295 | 12.9 | 19.3 | 0.00 | 0.00 | 0.00 | 35 | 1004.5 |
| 20260504004941 | 18 | 301 | 11.3 | 19.3 | 0.00 | 0.00 | 0.00 | 35 | 1004.5 |
| 20260504004823 | 18 | 299 | 9.7 | 19.3 | 0.00 | 0.00 | 0.00 | 35 | 1004.5 |
| 20260504004707 | 18 | 281 | 12.9 | 19.3 | 0.00 | 0.00 | 0.00 | 35 | 1004.5 |
| 20260504004611 | 18 | 284 | 12.9 | 19.3 | 0.00 | 0.00 | 0.00 | 35 | 1004.5 |
| 20260504004517 | 18 | 302 | 11.3 | 19.3 | 0.00 | 0.00 | 0.00 | 35 | 1004.5 |
| 20260504004405 | 18 | 297 | 11.3 | 19.3 | 0.00 | 0.00 | 0.00 | 36 | 1004.5 |
| 20260504004330 | 18 | 302 | 12.9 | 17.7 | 0.00 | 0.00 | 0.00 | 35 | 1004.5 |
| 20260504004213 | 18 | 302 | 14.5 | 17.7 | 0.00 | 0.00 | 0.00 | 34 | 1004.5 |
| 20260504004118 | 18 | 294 | 14.5 | 17.7 | 0.00 | 0.00 | 0.00 | 34 | 1004.5 |
| 20260504004023 | 18 | 290 | 11.3 | 17.7 | 0.00 | 0.00 | 0.00 | 35 | 1004.5 |
| 20260504003909 | 18 | 286 | 9.7 | 16.1 | 0.00 | 0.00 | 0.00 | 35 | 1004.5 |
| 20260504003834 | 18 | 302 | 9.7 | 17.7 | 0.00 | 0.00 | 0.00 | 35 | 1004.5 |
| 20260504003718 | 18 | 300 | 8.0 | 22.5 | 0.00 | 0.00 | 0.00 | 35 | 1004.5 |
| 20260504003607 | 18 | 284 | 9.7 | 22.5 | 0.00 | 0.00 | 0.00 | 35 | 1004.5 |
| 20260504003512 | 18 | 288 | 9.7 | 22.5 | 0.00 | 0.00 | 0.00 | 36 | 1004.6 |
| 20260504003418 | 18 | 300 | 9.7 | 22.5 | 0.00 | 0.00 | 0.00 | 36 | 1004.6 |
| 20260504003323 | 18 | 307 | 11.3 | 22.5 | 0.00 | 0.00 | 0.00 | 35 | 1004.6 |
| 20260504003206 | 19 | 304 | 11.3 | 22.5 | 0.00 | 0.00 | 0.00 | 33 | 1004.6 |
| 20260504003116 | 18 | 301 | 11.3 | 22.5 | 0.00 | 0.00 | 0.00 | 33 | 1004.6 |
| 20260504003021 | 18 | 324 | 12.9 | 22.5 | 0.00 | 0.00 | 0.00 | 34 | 1004.6 |
| 20260504002907 | 18 | 351 | 14.5 | 19.3 | 0.00 | 0.00 | 0.00 | 33 | 1004.6 |
| 20260504002813 | 18 | 315 | 12.9 | 17.7 | 0.00 | 0.00 | 0.00 | 34 | 1004.6 |
| 20260504002718 | 18 | 293 | 11.3 | 17.7 | 0.00 | 0.00 | 0.00 | 34 | 1004.7 |
| 20260504002622 | 18 | 286 | 9.7 | 17.7 | 0.00 | 0.00 | 0.00 | 33 | 1004.6 |
| 20260504002511 | 19 | 308 | 8.0 | 17.7 | 0.00 | 0.00 | 0.00 | 35 | 1004.6 |
| 20260504002417 | 19 | 273 | 6.4 | 17.7 | 0.00 | 0.00 | 0.00 | 36 | 1004.7 |
| 20260504002323 | 19 | 280 | 9.7 | 17.7 | 0.00 | 0.00 | 0.00 | 34 | 1004.7 |
| 20260504002207 | 19 | 291 | 9.7 | 17.7 | 0.00 | 0.00 | 0.00 | 35 | 1004.7 |
| 20260504002110 | 19 | 290 | 8.0 | 17.7 | 0.00 | 0.00 | 0.00 | 34 | 1004.6 |
| 20260504002016 | 19 | 309 | 9.7 | 17.7 | 0.00 | 0.00 | 0.00 | 36 | 1004.7 |
| 20260504001905 | 19 | 310 | 12.9 | 17.7 | 0.00 | 0.00 | 0.00 | 35 | 1004.7 |
| 20260504001811 | 19 | 279 | 12.9 | 17.7 | 0.00 | 0.00 | 0.00 | 34 | 1004.7 |
| 20260504001717 | 19 | 288 | 12.9 | 17.7 | 0.00 | 0.00 | 0.00 | 34 | 1004.7 |
| 20260504001622 | 19 | 295 | 12.9 | 17.7 | 0.00 | 0.00 | 0.00 | 33 | 1004.8 |
| 20260504001507 | 19 | 360 | 11.3 | 17.7 | 0.00 | 0.00 | 0.00 | 32 | 1004.7 |
| 20260504001433 | 19 | 314 | 9.7 | 16.1 | 0.00 | 0.00 | 0.00 | 33 | 1004.7 |
| 20260504001322 | 19 | 296 | 8.0 | 19.3 | 0.00 | 0.00 | 0.00 | 33 | 1004.7 |
| 20260504001227 | 19 | 309 | 9.7 | 19.3 | 0.00 | 0.00 | 0.00 | 36 | 1004.7 |
| 20260504001112 | 19 | 298 | 9.7 | 20.9 | 0.00 | 0.00 | 0.00 | 32 | 1004.8 |
| 20260504001038 | 19 | 309 | 9.7 | 20.9 | 0.00 | 0.00 | 0.00 | 35 | 1004.8 |
| 20260504000923 | 19 | 302 | 11.3 | 20.9 | 0.00 | 0.00 | 0.00 | 34 | 1004.8 |
| 20260504000809 | 19 | 309 | 14.5 | 20.9 | 0.00 | 0.00 | 0.00 | 33 | 1004.8 |
| 20260504000718 | 19 | 286 | 14.5 | 20.9 | 0.00 | 0.00 | 0.00 | 33 | 1004.8 |
| 20260504000604 | 19 | 316 | 14.5 | 20.9 | 0.00 | 0.00 | 0.00 | 32 | 1004.8 |
| 20260504000510 | 19 | 298 | 14.5 | 20.9 | 0.00 | 0.00 | 0.00 | 34 | 1004.8 |
| 20260504000416 | 19 | 278 | 14.5 | 20.9 | 0.00 | 0.00 | 0.00 | 35 | 1004.8 |
| 20260504000321 | 19 | 286 | 16.1 | 20.9 | 0.00 | 0.00 | 0.00 | 33 | 1004.8 |
| 20260504000207 | 19 | 290 | 14.5 | 20.9 | 0.00 | 0.00 | 0.00 | 34 | 1004.8 |
| 20260504000116 | 19 | 300 | 16.1 | 20.9 | 0.00 | 0.00 | 0.00 | 32 | 1004.7 |
| 20260504000021 | 19 | 299 | 16.1 | 20.9 | 0.00 | 0.00 | 0.00 | 33 | 1004.8 |
| 20260503235906 | 19 | 298 | 12.9 | 19.3 | 0.00 | 0.00 | 0.00 | 32 | 1004.7 |
| 20260503235831 | 19 | 294 | 9.7 | 17.7 | 0.00 | 0.00 | 0.00 | 33 | 1004.7 |
| 20260503235714 | 19 | 307 | 8.0 | 17.7 | 0.00 | 0.00 | 0.00 | 33 | 1004.8 |
| 20260503235619 | 19 | 294 | 6.4 | 17.7 | 0.00 | 0.00 | 0.00 | 35 | 1004.7 |
| 20260503235526 | 20 | 13 | 6.4 | 17.7 | 0.00 | 0.00 | 0.00 | 34 | 1004.7 |
| 20260503235410 | 20 | 300 | 9.7 | 17.7 | 0.00 | 0.00 | 0.00 | 32 | 1004.7 |
| 20260503235315 | 20 | 290 | 12.9 | 17.7 | 0.00 | 0.00 | 0.00 | 31 | 1004.7 |
| 20260503235240 | 20 | 318 | 12.9 | 19.3 | 0.00 | 0.00 | 0.00 | 31 | 1004.7 |
| 20260503235141 | 20 | 300 | 8.0 | 19.3 | 0.00 | 0.00 | 0.00 | 31 | 1004.7 |
| 20260503235005 | 20 | 304 | 4.8 | 19.3 | 0.00 | 0.00 | 0.00 | 32 | 1004.7 |
| 20260503234909 | 20 | 316 | 8.0 | 19.3 | 0.00 | 0.00 | 0.00 | 32 | 1004.7 |
| 20260503234818 | 20 | 344 | 9.7 | 19.3 | 0.00 | 0.00 | 0.00 | 32 | 1004.8 |
| 20260503234720 | 20 | 323 | 9.7 | 22.5 | 0.00 | 0.00 | 0.00 | 33 | 1004.7 |
| 20260503234604 | 20 | 279 | 9.7 | 22.5 | 0.00 | 0.00 | 0.00 | 30 | 1004.7 |
| 20260503234508 | 20 | 338 | 11.3 | 22.5 | 0.00 | 0.00 | 0.00 | 30 | 1004.7 |
| 20260503234412 | 20 | 315 | 11.3 | 22.5 | 0.00 | 0.00 | 0.00 | 30 | 1004.7 |
| 20260503234316 | 20 | 11 | 8.0 | 22.5 | 0.00 | 0.00 | 0.00 | 33 | 1004.8 |
| 20260503234204 | 20 | 355 | 9.7 | 22.5 | 0.00 | 0.00 | 0.00 | 32 | 1004.8 |
| 20260503234129 | 20 | 329 | 12.9 | 22.5 | 0.00 | 0.00 | 0.00 | 30 | 1004.8 |
| 20260503234031 | 20 | 355 | 14.5 | 22.5 | 0.00 | 0.00 | 0.00 | 30 | 1004.8 |
| 20260503233935 | 20 | 331 | 12.9 | 22.5 | 0.00 | 0.00 | 0.00 | 31 | 1004.8 |
| 20260503233818 | 20 | 314 | 11.3 | 20.9 | 0.00 | 0.00 | 0.00 | 31 | 1004.8 |
| 20260503233741 | 20 | 301 | 11.3 | 20.9 | 0.00 | 0.00 | 0.00 | 32 | 1004.7 |
| 20260503233625 | 20 | 315 | 14.5 | 20.9 | 0.00 | 0.00 | 0.00 | 32 | 1004.8 |
| 20260503233529 | 20 | 298 | 16.1 | 20.9 | 0.00 | 0.00 | 0.00 | 30 | 1004.8 |
| 20260503233412 | 20 | 311 | 16.1 | 20.9 | 0.00 | 0.00 | 0.00 | 30 | 1004.8 |
| 20260503233320 | 20 | 295 | 12.9 | 20.9 | 0.00 | 0.00 | 0.00 | 31 | 1004.8 |
| 20260503233204 | 20 | 314 | 9.7 | 19.3 | 0.00 | 0.00 | 0.00 | 31 | 1004.8 |
| 20260503233128 | 20 | 331 | 11.3 | 19.3 | 0.00 | 0.00 | 0.00 | 30 | 1004.8 |
| 20260503233031 | 20 | 351 | 12.9 | 22.5 | 0.00 | 0.00 | 0.00 | 30 | 1004.8 |
| 20260503232907 | 20 | 325 | 12.9 | 24.1 | 0.00 | 0.00 | 0.00 | 32 | 1004.8 |
| 20260503232809 | 20 | 294 | 11.3 | 24.1 | 0.00 | 0.00 | 0.00 | 30 | 1004.8 |
| 20260503232717 | 20 | 299 | 11.3 | 24.1 | 0.00 | 0.00 | 0.00 | 30 | 1004.8 |
| 20260503232622 | 20 | 334 | 12.9 | 24.1 | 0.00 | 0.00 | 0.00 | 30 | 1004.9 |
| 20260503232506 | 20 | 342 | 11.3 | 24.1 | 0.00 | 0.00 | 0.00 | 31 | 1004.8 |
| 20260503232410 | 21 | 288 | 9.7 | 24.1 | 0.00 | 0.00 | 0.00 | 30 | 1004.8 |
| 20260503232315 | 21 | 337 | 12.9 | 24.1 | 0.00 | 0.00 | 0.00 | 32 | 1004.9 |
| 20260503232218 | 21 | 306 | 16.1 | 24.1 | 0.00 | 0.00 | 0.00 | 30 | 1004.9 |
| 20260503232106 | 21 | 286 | 14.5 | 20.9 | 0.00 | 0.00 | 0.00 | 30 | 1004.9 |
| 20260503232031 | 21 | 298 | 12.9 | 19.3 | 0.00 | 0.00 | 0.00 | 29 | 1004.9 |
| 20260503231914 | 21 | 346 | 9.7 | 19.3 | 0.00 | 0.00 | 0.00 | 30 | 1004.9 |
| 20260503231818 | 21 | 316 | 11.3 | 22.5 | 0.00 | 0.00 | 0.00 | 30 | 1004.9 |
| 20260503231722 | 21 | 24 | 11.3 | 22.5 | 0.00 | 0.00 | 0.00 | 28 | 1004.9 |
| 20260503231606 | 21 | 336 | 11.3 | 22.5 | 0.00 | 0.00 | 0.00 | 30 | 1004.9 |
| 20260503231514 | 21 | 9 | 12.9 | 22.5 | 0.00 | 0.00 | 0.00 | 29 | 1004.9 |
| 20260503231419 | 21 | 347 | 12.9 | 22.5 | 0.00 | 0.00 | 0.00 | 29 | 1004.9 |
| 20260503231323 | 20 | 329 | 14.5 | 22.5 | 0.00 | 0.00 | 0.00 | 29 | 1004.8 |
| 20260503231206 | 20 | 327 | 14.5 | 25.7 | 0.00 | 0.00 | 0.00 | 28 | 1004.9 |
| 20260503231110 | 20 | 347 | 14.5 | 25.7 | 0.00 | 0.00 | 0.00 | 28 | 1004.9 |
| 20260503231015 | 20 | 309 | 16.1 | 25.7 | 0.00 | 0.00 | 0.00 | 28 | 1004.9 |
| 20260503230939 | 20 | 316 | 16.1 | 25.7 | 0.00 | 0.00 | 0.00 | 29 | 1004.9 |
| 20260503230806 | 20 | 324 | 14.5 | 25.7 | 0.00 | 0.00 | 0.00 | 30 | 1004.9 |
| 20260503230710 | 20 | 312 | 14.5 | 25.7 | 0.00 | 0.00 | 0.00 | 29 | 1004.9 |
| 20260503230613 | 20 | 327 | 14.5 | 25.7 | 0.00 | 0.00 | 0.00 | 32 | 1004.9 |
| 20260503230537 | 21 | 288 | 17.7 | 25.7 | 0.00 | 0.00 | 0.00 | 31 | 1005.0 |
| 20260503230420 | 21 | 292 | 19.3 | 25.7 | 0.00 | 0.00 | 0.00 | 28 | 1005.0 |
| 20260503230305 | 21 | 303 | 17.7 | 25.7 | 0.00 | 0.00 | 0.00 | 29 | 1004.9 |
| 20260503230212 | 21 | 300 | 16.1 | 24.1 | 0.00 | 0.00 | 0.00 | 32 | 1005.0 |
| 20260503230117 | 21 | 284 | 16.1 | 22.5 | 0.00 | 0.00 | 0.00 | 31 | 1005.0 |
| 20260503230041 | 21 | 308 | 19.3 | 22.5 | 0.00 | 0.00 | 0.00 | 29 | 1005.0 |
| 20260503225905 | 21 | 289 | 16.1 | 22.5 | 0.00 | 0.00 | 0.00 | 29 | 1005.0 |
| 20260503225809 | 21 | 310 | 14.5 | 20.9 | 0.00 | 0.00 | 0.00 | 29 | 1005.0 |
| 20260503225714 | 21 | 306 | 11.3 | 22.5 | 0.00 | 0.00 | 0.00 | 29 | 1005.0 |
| 20260503225622 | 21 | 306 | 11.3 | 22.5 | 0.00 | 0.00 | 0.00 | 30 | 1005.0 |
| 20260503225527 | 21 | 331 | 9.7 | 22.5 | 0.00 | 0.00 | 0.00 | 29 | 1005.0 |
| 20260503225410 | 21 | 294 | 9.7 | 24.1 | 0.00 | 0.00 | 0.00 | 29 | 1005.0 |
| 20260503225314 | 21 | 327 | 11.3 | 24.1 | 0.00 | 0.00 | 0.00 | 27 | 1005.2 |
| 20260503225219 | 21 | 314 | 9.7 | 24.1 | 0.00 | 0.00 | 0.00 | 28 | 1005.1 |
| 20260503225123 | 21 | 301 | 8.0 | 24.1 | 0.00 | 0.00 | 0.00 | 30 | 1005.1 |
| 20260503225012 | 21 | 350 | 11.3 | 24.1 | 0.00 | 0.00 | 0.00 | 27 | 1005.2 |
| 20260503224917 | 21 | 350 | 14.5 | 24.1 | 0.00 | 0.00 | 0.00 | 28 | 1005.3 |
| 20260503224822 | 21 | 323 | 12.9 | 25.7 | 0.00 | 0.00 | 0.00 | 29 | 1005.2 |
| 20260503224706 | 21 | 332 | 14.5 | 25.7 | 0.00 | 0.00 | 0.00 | 29 | 1005.2 |
| 20260503224630 | 21 | 316 | 14.5 | 25.7 | 0.00 | 0.00 | 0.00 | 29 | 1005.2 |
| 20260503224507 | 21 | 360 | 12.9 | 25.7 | 0.00 | 0.00 | 0.00 | 28 | 1005.1 |
| 20260503224431 | 21 | 330 | 14.5 | 25.7 | 0.00 | 0.00 | 0.00 | 28 | 1005.1 |
| 20260503224319 | 21 | 337 | 14.5 | 25.7 | 0.00 | 0.00 | 0.00 | 28 | 1005.2 |
| 20260503224222 | 21 | 348 | 14.5 | 25.7 | 0.00 | 0.00 | 0.00 | 29 | 1005.2 |
| 20260503224127 | 21 | 5 | 17.7 | 25.7 | 0.00 | 0.00 | 0.00 | 29 | 1005.1 |
| 20260503224011 | 21 | 326 | 16.1 | 25.7 | 0.00 | 0.00 | 0.00 | 32 | 1005.2 |
| 20260503223933 | 21 | 288 | 8.0 | 20.9 | 0.00 | 0.00 | 0.00 | 32 | 1005.1 |
| 20260503223836 | 21 | 254 | 8.0 | 24.1 | 0.00 | 0.00 | 0.00 | 31 | 1005.1 |
| 20260503223739 | 21 | 355 | 8.0 | 24.1 | 0.00 | 0.00 | 0.00 | 29 | 1005.2 |
| 20260503223606 | 21 | 269 | 9.7 | 24.1 | 0.00 | 0.00 | 0.00 | 29 | 1005.1 |
| 20260503223531 | 21 | 336 | 9.7 | 24.1 | 0.00 | 0.00 | 0.00 | 28 | 1005.1 |
| 20260503223414 | 21 | 321 | 11.3 | 24.1 | 0.00 | 0.00 | 0.00 | 30 | 1005.2 |
| 20260503223318 | 21 | 34 | 12.9 | 24.1 | 0.00 | 0.00 | 0.00 | 27 | 1005.2 |
| 20260503223223 | 21 | 306 | 14.5 | 24.1 | 0.00 | 0.00 | 0.00 | 27 | 1005.3 |
| 20260503223128 | 21 | 341 | 16.1 | 24.1 | 0.00 | 0.00 | 0.00 | 28 | 1005.3 |
| 20260503223005 | 21 | 15 | 17.7 | 24.1 | 0.00 | 0.00 | 0.00 | 28 | 1005.3 |
| 20260503222933 | 21 | 355 | 16.1 | 24.1 | 0.00 | 0.00 | 0.00 | 28 | 1005.3 |
| 20260503222817 | 21 | 346 | 12.9 | 24.1 | 0.00 | 0.00 | 0.00 | 29 | 1005.3 |
| 20260503222721 | 21 | 339 | 12.9 | 25.7 | 0.00 | 0.00 | 0.00 | 29 | 1005.2 |
| 20260503222626 | 21 | 17 | 12.9 | 25.7 | 0.00 | 0.00 | 0.00 | 28 | 1005.3 |
| 20260503222509 | 21 | 27 | 9.7 | 25.7 | 0.00 | 0.00 | 0.00 | 28 | 1005.2 |
| 20260503222414 | 21 | 27 | 9.7 | 25.7 | 0.00 | 0.00 | 0.00 | 29 | 1005.3 |
| 20260503222320 | 21 | 32 | 12.9 | 25.7 | 0.00 | 0.00 | 0.00 | 28 | 1005.3 |
| 20260503222209 | 21 | 315 | 16.1 | 25.7 | 0.00 | 0.00 | 0.00 | 29 | 1005.3 |
| 20260503222113 | 21 | 330 | 17.7 | 25.7 | 0.00 | 0.00 | 0.00 | 30 | 1005.4 |
| 20260503222019 | 21 | 12 | 17.7 | 25.7 | 0.00 | 0.00 | 0.00 | 29 | 1005.3 |
| 20260503221923 | 21 | 346 | 16.1 | 25.7 | 0.00 | 0.00 | 0.00 | 29 | 1005.3 |
| 20260503221827 | 21 | 314 | 12.9 | 20.9 | 0.00 | 0.00 | 0.00 | 29 | 1005.3 |
| 20260503221710 | 21 | 301 | 9.7 | 19.3 | 0.00 | 0.00 | 0.00 | 28 | 1005.2 |
| 20260503221618 | 21 | 348 | 6.4 | 19.3 | 0.00 | 0.00 | 0.00 | 30 | 1005.3 |
| 20260503221541 | 21 | 333 | 6.4 | 19.3 | 0.00 | 0.00 | 0.00 | 30 | 1005.4 |
| 20260503221422 | 21 | 328 | 6.4 | 19.3 | 0.00 | 0.00 | 0.00 | 31 | 1005.3 |